[{"header": {"dx": 0.06612293990616946, "dy": 0.0552356325346848, "nx": 98, "ny": 59, "la1": 35.046912555036876, "la2": 31.78801023549047, "lo1": -121.43107172385933, "lo2": -114.95102361305473, "refTime": "2026041607", "parameterCategory": 1, "parameterNumber": 2}, "data": [8.94, 8.94, 8.97, 8.33, 8.16, 7.8, 7.59, 6.97, 6.34, 5.72, 5.1, 3.47, 1.4, 0.99, 0.6, 0.0, 0.0, -0.7, -1.8, -2.68, -3.48, -2.53, -2.5, -1.9, -1.24, -0.65, -0.65, 0.0, 0.0, 0.61, 1.4, 1.88, 2.5, 2.91, 3.53, 4.47, 5.36, 6.22, 6.21, 4.87, 3.98, 3.97, 5.37, 7.64, 9.88, 12.52, 16.72, 16.37, 6.94, 1.33, 3.2, 4.56, 5.59, 5.94, 6.14, 7.18, 8.27, 8.93, 9.3, 9.9, 8.93, 8.06, 7.02, 6.32, 7.02, 7.97, 9.3, 10.29, 10.9, 11.5, 10.87, 8.88, 7.03, 4.46, 4.43, 6.39, 8.06, 9.6, 11.45, 7.28, 0.6, -1.9, -1.26, -0.89, -1.34, -1.34, -0.63, 0.63, 2.68, 4.47, 6.79, 7.6, 8.24, 8.88, 8.14, 5.16, 4.02, 4.47, 8.48, 8.94, 8.52, 8.56, 8.37, 8.18, 7.57, 7.6, 6.97, 6.34, 5.45, 3.9, 2.15, 1.86, 2.4, 1.34, 0.0, 0.0, -1.6, -2.3, -4.43, -4.43, -2.86, -2.23, -0.99, -0.57, 0.0, 0.0, 0.0, 0.0, 0.53, 1.2, 1.9, 2.63, 3.53, 4.02, 5.32, 7.11, 6.55, 6.07, 5.34, 6.4, 7.47, 9.17, 11.7, 14.66, 16.71, 8.3, 1.4, 2.35, 3.79, 4.83, 5.21, 5.86, 6.23, 6.79, 7.82, 9.27, 10.29, 9.92, 9.67, 8.32, 6.95, 6.95, 7.27, 7.97, 8.93, 9.92, 10.55, 11.16, 11.5, 9.9, 7.03, 4.81, 4.43, 6.39, 8.88, 9.6, 11.45, 7.28, 0.6, -1.9, -1.26, -0.89, -1.34, -1.34, -0.63, 0.63, 2.68, 4.47, 6.79, 7.6, 8.24, 8.88, 8.14, 5.16, 4.02, 4.47, 8.48, 8.48, 8.52, 8.3, 8.33, 8.16, 8.2, 7.59, 7.6, 6.97, 5.98, 4.46, 3.07, 2.21, 1.86, 1.2, 0.63, 0.0, -0.7, -1.8, -3.07, -4.47, -5.15, -3.79, -1.49, -0.6, 0.0, 0.0, 0.0, -0.54, 0.0, 0.0, 0.65, 1.58, 2.91, 3.47, 5.64, 6.79, 7.47, 7.6, 7.95, 9.56, 10.75, 11.53, 12.87, 13.35, 8.68, 2.5, 3.0, 4.16, 4.65, 4.56, 5.3, 5.49, 5.52, 6.42, 7.9, 9.27, 9.92, 9.92, 9.67, 8.3, 7.27, 7.18, 7.59, 7.9, 8.9, 9.9, 10.9, 11.9, 12.51, 11.83, 8.63, 5.43, 3.07, 5.43, 8.82, 11.62, 12.01, 10.02, 3.32, -0.0, -1.7, -2.24, -2.68, -2.17, -1.2, 0.45, 2.63, 6.36, 9.08, 9.2, 7.28, 4.09, 3.07, 2.68, 3.53, 4.43, 8.48, 8.48, 8.52, 8.52, 8.33, 8.14, 8.18, 7.55, 7.59, 6.96, 6.33, 5.08, 3.9, 2.07, 1.9, 1.86, 1.49, 1.24, 0.0, -0.7, -1.84, -2.41, -5.37, -5.3, -4.43, -1.9, -0.95, 0.0, 0.45, 0.0, -0.73, -0.72, -0.76, 0.0, 1.4, 3.93, 5.37, 6.99, 7.68, 9.27, 10.86, 11.76, 11.06, 9.53, 8.94, 7.47, 4.66, 5.37, 5.69, 5.37, 4.71, 4.65, 4.65, 4.56, 5.21, 6.24, 7.64, 8.65, 9.9, 9.9, 8.93, 7.64, 6.88, 7.18, 7.08, 7.82, 8.46, 9.13, 10.43, 12.07, 13.51, 13.49, 10.8, 6.8, 3.32, 3.13, 6.26, 10.7, 13.05, 10.16, 3.97, 1.26, -1.79, -3.13, -3.58, -2.24, 0.45, 1.7, 3.45, 8.24, 9.84, 7.67, 2.8, 0.89, 1.26, 2.5, 3.97, 4.92, 8.48, 8.48, 8.52, 8.52, 8.3, 8.37, 8.16, 7.93, 7.57, 7.33, 6.7, 5.7, 3.9, 2.41, 1.88, 1.88, 1.9, 1.58, 1.2, 0.0, -1.8, -2.84, -2.84, -5.24, -5.43, -5.24, -2.21, -0.71, 0.0, 0.57, 0.0, -0.78, -1.52, -0.78, 1.11, 3.14, 4.44, 7.36, 8.66, 9.31, 10.12, 9.27, 7.6, 6.66, 6.71, 6.98, 7.03, 6.7, 6.44, 5.72, 5.06, 4.74, 4.36, 4.16, 5.3, 6.32, 7.06, 8.3, 9.3, 9.65, 8.3, 6.32, 5.86, 6.05, 6.97, 7.73, 7.73, 8.01, 9.4, 11.44, 13.77, 15.09, 12.97, 10.48, 6.94, 3.13, 3.45, 6.79, 9.83, 9.29, 3.58, 1.79, -1.2, -3.58, -3.58, -1.7, 1.86, 4.4, 7.67, 8.93, 8.67, 3.45, 1.34, 0.71, 1.4, 3.07, 4.43, 5.81, 8.48, 8.48, 8.27, 8.97, 8.74, 8.77, 8.14, 8.18, 8.22, 7.59, 6.96, 5.69, 3.64, 2.15, 2.21, 1.49, 1.2, 1.49, 2.15, 0.59, -2.47, -5.21, -5.72, -5.59, -4.43, -4.47, -3.97, -1.99, 0.0, 0.0, 0.65, 0.61, 0.0, 0.0, 0.71, 2.15, 3.95, 6.97, 8.66, 7.73, 5.86, 5.59, 5.59, 8.01, 8.94, 8.36, 7.03, 6.08, 6.06, 5.43, 5.09, 4.43, 4.74, 4.36, 5.43, 6.44, 6.7, 6.7, 8.63, 9.6, 7.06, 4.56, 4.6, 5.28, 5.95, 6.97, 7.82, 7.18, 7.52, 10.55, 13.1, 14.07, 13.51, 13.51, 13.04, 9.83, 3.97, 2.53, 3.82, 8.01, 3.13, 2.5, 0.0, -2.5, -2.53, 0.0, 3.22, 7.68, 9.3, 8.32, 6.06, 2.86, 0.6, 0.54, 1.61, 3.6, 5.32, 6.71, 8.48, 8.48, 8.71, 8.97, 8.74, 9.0, 8.79, 8.16, 8.2, 7.57, 6.94, 5.69, 3.9, 2.21, 4.4, 1.86, 1.9, 2.3, 3.22, 2.88, 0.59, -2.0, -6.88, -8.01, -6.44, -4.44, -4.4, -3.11, -2.06, -0.82, 0.0, 0.54, 1.2, 2.2, 2.12, 1.43, 3.02, 6.45, 7.59, 4.56, 2.68, 2.53, 5.37, 6.99, 5.36, 4.46, 5.3, 6.01, 6.06, 7.37, 6.7, 5.09, 5.09, 5.09, 5.46, 6.07, 6.07, 6.4, 7.2, 8.0, 5.43, 3.33, 3.09, 3.8, 4.6, 6.88, 7.59, 7.06, 6.7, 9.6, 11.62, 11.34, 11.2, 13.64, 14.17, 14.68, 11.23, 4.02, 3.13, 6.71, 4.43, 3.79, 2.11, 0.0, -0.63, 1.4, 4.71, 7.18, 8.3, 7.02, 3.64, 0.57, -0.0, -0.0, 2.5, 3.98, 6.71, 6.71, 8.27, 8.27, 8.71, 8.97, 8.74, 9.0, 8.77, 8.4, 8.18, 7.57, 6.7, 5.02, 4.16, 3.16, 5.37, 2.8, 2.86, 3.79, 3.72, 3.84, 3.51, 3.58, 1.24, -3.8, -6.67, -5.4, -3.34, -4.15, -4.4, -3.35, -1.1, 0.0, 0.96, 3.45, 3.8, 2.97, 2.95, 4.6, 5.44, 2.21, 1.6, 1.6, 1.58, 1.34, -0.0, 0.96, 3.0, 5.3, 6.39, 7.37, 4.46, 4.46, 5.09, 5.43, 5.82, 5.69, 6.07, 6.4, 6.94, 6.4, 4.81, 2.29, 2.29, 3.79, 4.56, 6.32, 7.68, 7.03, 5.59, 7.45, 9.58, 10.02, 10.62, 12.05, 12.94, 12.89, 13.29, 11.45, 10.02, 11.08, 12.52, 6.96, 4.14, 2.0, 1.44, 3.44, 4.96, 6.05, 6.95, 4.65, 0.61, -1.34, -0.95, 0.4, 2.68, 4.47, 7.12, 6.71, 8.52, 8.52, 8.71, 8.97, 8.97, 9.0, 8.77, 8.79, 8.43, 7.95, 6.94, 5.2, 4.4, 3.32, 4.26, 4.74, 4.74, 4.43, 3.48, 3.2, 2.68, 5.36, 6.65, 2.8, -1.45, -4.18, -4.4, -5.45, -6.44, -3.3, -1.14, 0.0, 1.13, 2.08, 3.11, 3.15, 3.3, 1.98, 1.26, 0.89, 0.45, 0.0, 0.45, -0.6, -0.0, -0.0, 0.85, 2.84, 4.74, 4.74, 6.18, 4.43, 5.09, 5.09, 5.43, 6.07, 6.25, 6.94, 6.94, 5.6, 3.79, 2.47, 2.29, 3.33, 4.65, 6.06, 8.24, 7.89, 4.92, 5.81, 7.6, 9.39, 11.18, 11.62, 11.15, 10.73, 10.28, 11.15, 12.87, 13.79, 15.12, 8.71, 4.02, 2.75, 2.75, 3.51, 4.07, 5.49, 4.67, 1.13, -1.2, -1.7, -0.89, 0.0, 3.07, 5.16, 7.45, 6.26, 8.52, 8.52, 8.97, 8.97, 8.97, 9.0, 8.77, 8.79, 8.81, 8.2, 7.57, 6.5, 5.64, 4.51, 4.01, 3.95, 4.13, 4.13, 3.45, 2.17, 2.21, 3.4, 4.74, 5.37, 1.6, -0.76, -2.41, -5.72, -6.44, -3.34, 0.0, 0.0, 0.0, 0.0, 0.0, 2.09, 1.6, 0.32, -0.0, -0.0, 0.45, 0.0, -0.63, -0.89, -0.6, -0.0, -0.0, 1.2, 2.07, 3.72, 3.64, 4.36, 5.43, 5.09, 5.69, 6.4, 6.79, 6.98, 6.55, 4.8, 2.88, 2.4, 3.35, 3.79, 4.65, 5.43, 7.28, 7.2, 4.47, 4.66, 6.98, 9.29, 11.09, 11.53, 11.09, 10.63, 9.54, 9.58, 10.98, 12.94, 14.3, 13.84, 3.07, 0.66, 1.23, 1.94, 2.6, 3.12, 1.84, 0.0, -1.2, -0.89, -0.4, 0.0, 2.53, 5.34, 7.28, 5.36, 8.3, 8.52, 8.97, 8.97, 8.97, 9.24, 8.77, 8.79, 8.55, 8.43, 8.2, 7.55, 7.16, 5.83, 4.87, 3.82, 4.1, 4.07, 2.85, 2.35, 1.58, 0.81, 1.63, 1.55, 1.08, -0.63, -0.95, -1.49, -3.2, -2.02, 0.0, 0.0, -0.57, -0.57, 0.0, 0.0, 0.0, -0.45, -0.89, 0.0, 0.0, 0.0, 0.0, 0.89, -0.0, -0.0, -0.0, 0.61, 1.33, 2.07, 2.98, 4.43, 5.09, 5.69, 6.0, 6.79, 7.45, 7.15, 4.92, 2.86, 2.26, 2.44, 3.27, 3.09, 3.6, 4.71, 6.01, 6.44, 4.02, 4.8, 7.03, 9.34, 11.09, 11.09, 10.84, 10.84, 9.4, 7.6, 8.0, 9.6, 10.98, 12.07, 9.62, 0.0, 0.0, 1.2, 1.88, 1.61, 0.0, -0.57, -1.24, -0.57, 0.0, 0.0, 2.53, 5.05, 5.64, 4.02, 8.3, 8.97, 8.97, 8.97, 9.2, 9.4, 9.0, 9.04, 8.79, 8.81, 8.57, 8.2, 7.83, 7.59, 6.97, 6.33, 5.04, 4.54, 3.99, 3.56, 2.21, 0.51, 0.0, 0.0, 0.0, -0.89, -2.24, -0.8, -0.89, -2.21, -2.53, -2.24, -2.23, -1.86, -1.49, -2.15, -2.53, -1.86, -1.58, -0.57, -0.6, -0.4, 0.0, -0.0, -1.27, -0.61, -0.0, -0.0, 1.4, 2.21, 2.5, 3.07, 4.4, 5.34, 5.86, 6.79, 7.71, 6.55, 2.68, -0.0, -0.0, 2.44, 3.27, 1.49, 1.47, 3.11, 5.52, 6.32, 4.4, 3.58, 4.93, 6.9, 8.4, 8.14, 7.89, 8.82, 7.71, 4.66, 5.44, 5.86, 3.97, 5.77, 8.82, 2.63, 0.63, 1.26, 1.58, 1.26, 0.6, 0.0, 0.0, 0.0, 0.0, 0.6, 2.53, 4.0, 3.97, 2.68, 8.3, 8.97, 8.97, 8.97, 8.97, 9.4, 9.42, 9.04, 8.79, 9.07, 8.83, 8.85, 8.2, 8.22, 8.58, 8.53, 6.67, 5.38, 4.73, 5.1, 5.06, 4.4, 3.54, 3.09, 2.63, 1.2, -0.45, -1.86, -3.43, -5.24, -3.97, -3.13, -3.51, -3.07, -2.6, -3.13, -3.07, -2.4, -1.86, -1.86, -2.24, -2.17, -1.58, -1.0, -1.49, -1.49, -0.71, -0.0, 0.95, 1.79, 1.79, 2.24, 3.13, 3.58, 4.47, 4.92, 5.73, 7.4, 2.68, -0.0, -0.78, 1.49, 1.49, -0.0, -0.0, 0.77, 2.83, 4.5, 3.79, 2.98, 2.5, 3.07, 3.45, 4.4, 5.86, 6.79, 5.16, 3.58, 3.58, 3.13, 2.68, 3.58, 7.57, 8.49, 3.58, 2.68, 2.4, 1.86, 1.26, 1.86, 2.0, 1.7, 0.89, 1.6, 2.91, 2.91, 2.24, 1.34, 8.3, 8.97, 8.97, 8.97, 8.97, 8.97, 9.67, 9.42, 9.04, 8.79, 8.81, 8.83, 8.85, 8.58, 9.21, 9.19, 8.19, 6.28, 5.29, 5.86, 7.31, 8.67, 9.32, 9.32, 7.87, 5.14, 1.58, -0.63, -3.09, -4.44, -4.47, -2.68, -4.92, -2.68, -2.24, -2.24, -2.24, -1.7, -1.7, -1.79, -1.79, -2.4, -2.23, -2.23, -2.23, -2.53, -1.2, -0.89, 0.45, 0.45, 0.63, 1.86, 2.6, 2.23, 2.23, 2.23, 1.6, 5.36, 5.81, -0.0, -2.4, -1.03, -0.0, -1.14, -0.74, -0.0, -0.0, 1.35, 3.97, 3.64, 2.0, 1.26, 1.2, 2.12, 2.91, 3.51, 3.13, 2.68, 3.58, 4.02, 3.58, 5.16, 6.85, 6.85, 5.81, 4.92, 4.02, 2.6, 1.86, 2.6, 3.13, 3.13, 2.17, 2.12, 2.17, 1.79, 0.89, 0.89, 8.74, 8.97, 8.97, 8.97, 8.97, 8.97, 9.4, 9.42, 9.45, 9.19, 9.07, 9.48, 9.21, 9.49, 9.22, 9.5, 8.56, 7.55, 6.57, 6.7, 7.76, 9.71, 10.91, 10.91, 10.18, 8.3, 5.6, 2.21, -0.4, -2.24, -2.68, -2.68, -3.13, -3.58, -3.13, -2.68, -1.79, -0.45, -1.26, -0.89, -0.95, -2.21, -2.8, -3.2, -2.53, -1.6, -1.4, -2.4, -2.24, -0.89, 0.0, 0.8, 1.2, 0.45, 0.45, 0.0, 0.0, 3.49, 6.22, 1.49, -1.4, -1.58, -1.49, -0.71, -0.8, -0.8, -0.0, 0.95, 2.0, 2.21, 1.88, 1.2, 0.45, 0.89, 1.7, 2.5, 3.45, 3.74, 3.58, 4.41, 4.4, 5.43, 6.13, 5.44, 4.0, 4.87, 5.81, 4.02, 2.6, 2.6, 3.51, 3.53, 2.4, 1.7, 1.34, 0.45, 0.45, 0.45, 8.74, 8.97, 8.97, 8.97, 8.97, 8.97, 9.4, 9.67, 9.42, 9.45, 9.47, 9.2, 9.48, 9.49, 9.49, 9.21, 9.19, 7.93, 7.55, 7.44, 8.0, 9.88, 10.91, 11.41, 10.71, 9.51, 7.31, 5.6, 2.79, 0.6, -0.63, -1.7, -2.24, -3.13, -2.68, -1.26, -1.26, -0.6, -0.95, -1.26, -0.95, -0.6, -1.58, -2.21, -2.53, -2.53, -2.53, -2.21, -1.9, -1.58, -1.34, 0.0, 0.45, 0.45, 0.45, 0.45, 0.71, 2.23, 2.68, 1.24, -0.0, -0.0, -0.0, -0.0, 0.45, 0.0, 0.0, 0.0, 0.95, 0.8, 0.89, 0.95, 0.95, 0.45, 1.26, 2.3, 4.83, 5.69, 4.4, 3.07, 2.68, 2.6, 2.4, 2.4, 2.23, 2.15, 4.4, 4.24, 3.32, 2.8, 3.32, 1.9, 0.95, 1.79, 1.7, 0.63, 0.0, 0.0, 8.74, 8.97, 8.97, 8.97, 8.97, 8.97, 8.97, 9.64, 10.08, 9.7, 9.47, 9.47, 9.48, 9.49, 9.5, 9.5, 8.87, 8.85, 7.9, 7.81, 8.55, 9.88, 10.91, 11.33, 10.66, 10.04, 9.57, 8.48, 7.51, 5.08, 2.79, 0.57, -0.6, -2.24, -1.2, -1.24, -1.49, -1.24, -0.8, -1.58, -1.58, -0.63, -1.2, -0.6, -1.4, -1.6, -1.6, -1.4, -1.2, -0.0, -0.0, -0.0, -0.0, -0.0, 1.26, 2.24, 3.13, 2.4, -0.0, -0.0, -0.0, 1.58, 1.58, -0.0, -0.0, 0.0, 0.0, 0.0, 0.45, 0.89, 0.0, 0.0, -0.7, -0.57, -0.63, -0.0, 2.99, 6.05, 6.24, 3.64, 2.3, 1.88, 0.95, 0.45, 0.0, 0.63, 2.51, 2.5, 1.58, 2.4, 2.91, 2.4, 1.26, 2.4, 2.91, 1.49, 0.4, 0.4, 8.74, 8.97, 8.97, 8.97, 8.97, 8.97, 8.97, 9.64, 10.08, 10.1, 9.45, 9.47, 9.48, 9.49, 9.5, 9.5, 9.19, 8.87, 8.5, 8.38, 9.1, 10.4, 10.71, 10.81, 11.04, 11.12, 11.05, 10.5, 9.7, 8.51, 6.56, 4.07, 1.88, 0.0, -0.63, -0.8, -1.24, -1.26, -0.95, -0.0, 0.45, 0.45, -0.0, -0.0, -0.0, -0.0, -0.0, -0.0, -0.0, -0.0, -0.0, -0.0, -0.0, -0.0, -0.0, 1.9, 1.4, 1.13, 1.4, 1.58, 1.58, 2.68, 1.79, -1.6, -3.48, -1.2, 0.0, 0.65, 1.33, 1.4, 0.0, -1.27, -1.84, -2.5, -2.24, -1.16, 1.27, 5.0, 6.32, 5.37, 3.43, 2.51, 2.53, 0.4, -0.0, 0.0, 0.57, 0.71, 0.6, 1.34, 2.6, 3.07, 3.13, 2.91, 3.32, 2.63, 1.7, 1.7, 8.97, 8.97, 8.97, 8.97, 8.97, 8.97, 8.97, 9.4, 9.4, 10.08, 9.83, 9.47, 9.48, 9.49, 8.58, 9.02, 8.87, 8.87, 8.5, 9.21, 10.8, 11.6, 11.08, 9.49, 8.91, 10.7, 9.43, 9.49, 8.63, 8.27, 7.44, 6.23, 4.11, 2.21, 0.89, -0.0, -0.0, -0.6, -0.63, 0.45, 0.0, 0.0, 0.45, -0.0, -0.0, -0.0, -0.0, -0.0, -0.0, -0.0, -0.0, -0.0, -0.0, -0.0, -0.0, 1.27, 1.4, 2.21, 2.4, 2.68, 2.68, 2.24, 0.89, -1.58, -2.84, -2.23, -0.89, 1.24, 3.79, 4.98, 3.95, 4.47, 6.26, 4.02, 1.34, 0.0, 0.89, 3.58, 5.32, 5.16, 3.82, 3.82, 3.97, 2.68, 1.79, 1.6, 1.24, 1.58, 0.0, 0.0, 1.86, 3.82, 4.43, 4.02, 3.53, 3.13, 3.13, 3.13, 8.74, 8.97, 8.97, 8.97, 8.74, 8.74, 8.97, 8.97, 9.4, 10.08, 10.1, 9.47, 9.21, 8.85, 8.85, 8.87, 8.59, 7.96, 6.79, 7.64, 10.53, 12.42, 11.62, 9.92, 8.65, 9.3, 9.04, 8.65, 8.08, 6.92, 6.59, 6.28, 5.01, 3.43, 2.17, 1.2, 0.6, -0.0, -0.0, -0.0, -0.0, -0.0, -0.0, -0.0, -0.0, -0.0, -0.0, -0.0, -0.0, -0.0, -0.0, -0.0, -0.0, -0.0, -0.0, 0.65, 2.73, 1.26, 1.34, 2.24, 2.24, 1.34, 1.34, -2.84, -2.23, -1.86, -1.2, 0.89, 3.58, 6.98, 9.33, 12.65, 16.53, 16.92, 12.87, 6.7, 3.79, 4.56, 4.4, 3.98, 4.02, 4.43, 4.87, 4.02, 3.07, 2.68, 2.5, 2.68, 1.79, 0.89, 1.34, 3.58, 5.81, 4.02, 3.13, 3.13, 3.58, 3.58, 8.74, 8.74, 8.74, 8.74, 8.74, 8.74, 9.0, 9.0, 9.67, 9.67, 10.1, 9.47, 9.21, 8.85, 9.22, 9.5, 8.59, 7.6, 6.96, 8.01, 10.18, 11.28, 11.52, 10.65, 10.09, 10.06, 9.08, 7.86, 6.34, 5.1, 4.47, 4.45, 4.11, 3.43, 2.4, 1.79, 1.2, 1.2, 0.95, 0.95, 0.95, -0.0, -0.0, -0.0, -0.0, -0.0, -0.0, -0.0, -0.0, -0.0, -0.0, -0.0, -0.0, -0.0, -0.0, 0.65, 1.4, 1.4, 1.79, 0.0, 1.34, -2.24, -2.8, -3.39, -1.79, -1.6, -1.2, -0.0, 2.15, 4.36, 6.95, 11.5, 14.21, 13.86, 12.14, 8.9, 6.27, 5.51, 4.46, 3.16, 3.82, 4.02, 4.52, 4.66, 3.45, 3.07, 2.6, 3.07, 4.11, 3.53, 2.91, 3.6, 5.31, 3.98, 2.6, 2.24, 3.13, 3.13, 8.3, 8.74, 9.0, 9.0, 9.0, 9.0, 9.0, 9.0, 9.42, 9.42, 9.7, 9.47, 9.48, 9.49, 9.22, 9.5, 8.87, 7.96, 8.87, 9.5, 10.43, 10.4, 10.69, 10.69, 10.94, 11.23, 10.51, 8.65, 6.23, 4.43, 3.49, 2.86, 2.84, 2.21, 2.4, 1.79, 1.79, 2.12, 2.12, 2.12, 1.7, 1.2, 0.6, -0.0, -0.0, -0.0, -0.0, -0.0, -0.0, -0.0, -0.0, -0.0, -0.0, -0.0, -0.0, -0.0, 0.79, 1.41, 1.13, -1.79, -2.24, -2.17, -2.12, -1.6, -1.34, -1.2, -0.6, -0.57, -0.0, -0.0, 3.0, 6.95, 5.69, 2.6, 3.2, 4.77, 6.24, 5.55, 4.15, 2.06, 1.84, 2.68, 3.14, 3.43, 4.36, 3.43, 2.79, 3.16, 4.27, 4.77, 3.82, 3.35, 4.11, 3.39, 1.7, 1.34, 2.68, 2.68, 8.3, 8.3, 8.56, 9.0, 9.0, 9.0, 9.0, 8.77, 9.0, 9.42, 9.45, 9.47, 9.48, 9.49, 9.22, 8.86, 8.87, 8.59, 9.21, 10.45, 11.33, 11.23, 10.59, 10.23, 10.59, 11.16, 10.96, 9.63, 8.0, 6.51, 4.9, 3.88, 3.35, 3.07, 2.91, 2.63, 2.68, 3.07, 3.09, 3.07, 3.07, 2.17, 1.49, 1.26, 0.54, -0.0, -0.0, -0.0, -0.0, -0.0, -0.0, -0.0, -0.0, -0.0, -0.0, -0.0, -0.0, -0.0, 1.4, -0.0, -2.12, -2.12, -1.6, -0.95, -1.58, -1.49, -0.71, -0.0, -0.0, -0.0, -0.0, 0.95, 0.45, -1.34, 0.0, 1.4, 4.31, 5.63, 4.17, 2.06, 0.57, 1.26, 1.7, 2.21, 2.84, 3.79, 4.12, 4.09, 4.93, 6.79, 4.02, 2.5, 2.53, 2.15, 1.2, 1.7, 3.07, 3.07, 8.33, 8.33, 8.33, 8.77, 8.77, 8.77, 8.77, 8.77, 9.04, 9.04, 9.45, 9.47, 9.47, 9.21, 9.22, 8.86, 8.87, 9.21, 9.5, 10.75, 11.58, 11.8, 11.07, 10.96, 10.96, 10.96, 11.22, 10.4, 9.71, 8.72, 8.0, 6.79, 5.99, 5.09, 4.77, 4.44, 4.47, 4.47, 4.44, 4.44, 3.98, 3.09, 2.6, 1.86, 1.24, 0.71, -0.0, -0.0, -0.0, -0.0, -0.0, -0.0, -0.0, -0.0, -0.0, -1.08, -0.65, -0.54, 0.65, 0.71, -0.63, -1.79, -1.34, -0.8, -1.4, -0.79, -0.0, -0.0, -0.0, 0.45, 0.0, 2.86, 1.24, 0.0, 0.89, 0.0, 1.07, 3.3, 5.0, 2.82, 1.27, 1.0, 1.26, 2.24, 2.68, 3.13, 3.97, 4.43, 4.43, 4.93, 4.73, 2.24, 0.54, 0.57, 0.6, 1.86, 2.17, 2.17, 8.33, 8.33, 8.33, 8.33, 8.77, 8.77, 9.04, 8.79, 8.79, 8.79, 9.07, 9.47, 9.47, 9.48, 9.22, 8.86, 8.87, 9.5, 9.82, 10.43, 11.33, 11.52, 11.72, 11.88, 11.75, 11.36, 11.08, 10.68, 10.4, 10.42, 9.7, 8.96, 8.17, 7.4, 7.06, 6.23, 5.81, 5.81, 5.81, 5.33, 4.89, 3.98, 3.53, 2.91, 2.15, 1.9, 1.58, 1.58, 1.24, 0.65, -0.0, -0.0, -0.0, -0.0, -0.0, -1.27, -2.23, -1.24, -0.0, 0.95, 1.34, 0.45, -0.45, -0.71, -0.79, -0.7, -0.0, -0.0, -0.0, 0.0, 1.88, 5.46, 7.31, 6.26, 5.77, 3.82, 2.63, 1.9, 4.46, 3.72, 3.16, 2.51, 2.53, 2.21, 2.5, 3.07, 3.39, 3.82, 3.13, 2.23, 3.9, 4.12, 0.89, -0.54, 0.0, 1.26, 0.45, 0.45, 8.33, 8.33, 8.33, 8.11, 8.37, 8.79, 8.79, 8.79, 8.81, 8.81, 8.81, 8.81, 9.2, 9.48, 9.49, 9.21, 9.5, 9.5, 9.82, 10.12, 10.72, 11.28, 11.8, 12.16, 12.03, 11.75, 11.6, 10.68, 10.4, 10.21, 10.0, 9.7, 9.39, 8.64, 8.3, 7.51, 7.13, 6.71, 6.71, 6.26, 5.81, 4.89, 3.98, 3.39, 2.91, 2.5, 2.15, 2.15, 1.9, 1.61, 0.61, -0.0, -0.0, -0.0, -1.27, -1.27, -2.23, -2.84, -1.58, 0.0, 1.79, 2.68, 2.12, 0.71, -0.0, -0.0, -0.0, -0.0, -0.0, 0.45, 1.24, 4.6, 8.36, 11.62, 11.66, 10.87, 10.0, 4.47, 2.48, 2.98, 4.36, 4.74, 3.79, 2.84, 2.53, 3.07, 3.32, 2.63, 1.26, -0.0, 0.66, 6.95, 4.27, 0.63, -0.6, 0.0, 0.95, 0.95, 8.11, 8.11, 8.37, 8.37, 8.37, 8.37, 8.55, 8.81, 8.81, 8.56, 8.83, 8.83, 8.83, 9.21, 9.49, 9.5, 9.5, 9.5, 10.12, 10.12, 10.69, 10.94, 11.23, 11.72, 12.16, 12.03, 11.75, 11.08, 10.91, 10.62, 10.42, 9.51, 9.21, 8.96, 8.21, 7.87, 7.97, 7.58, 7.6, 7.15, 6.71, 5.81, 4.92, 3.98, 3.39, 3.32, 2.91, 2.91, 2.5, 1.9, 1.2, 0.61, -0.0, -0.61, -0.71, -1.24, -2.84, -3.35, -2.12, -1.2, 0.45, 2.6, 3.35, 2.41, 1.19, -0.0, -0.0, -0.0, -0.0, 0.63, 1.24, 2.84, 6.4, 8.46, 8.91, 9.9, 10.23, 4.77, 1.84, 1.41, 3.47, 5.49, 5.37, 3.15, 2.23, 2.5, 2.24, 0.99, -0.61, -1.13, -0.0, 2.53, 8.67, 4.93, 2.4, 1.9, 2.53, 2.53, 8.37, 8.37, 8.37, 8.14, 8.14, 8.4, 8.4, 8.4, 8.16, 8.43, 8.18, 8.57, 8.57, 9.49, 9.49, 9.84, 9.84, 9.82, 10.12, 9.8, 10.36, 10.65, 10.88, 11.72, 12.16, 12.42, 12.28, 12.11, 11.41, 11.12, 10.42, 9.7, 9.39, 9.07, 8.33, 7.87, 7.97, 7.58, 7.58, 7.15, 6.71, 6.26, 5.36, 4.88, 4.3, 3.87, 3.82, 2.91, 2.91, 2.15, 1.9, 1.2, 0.65, -0.0, -1.0, -1.26, -3.2, -3.82, -2.6, -2.17, -0.6, 1.26, 2.21, 2.53, 1.24, 1.27, 0.57, 0.45, 0.63, 0.6, 1.86, 2.86, 4.46, 4.09, 3.39, 6.71, 7.6, 3.53, 0.54, 0.7, 2.35, 4.71, 5.41, 4.74, 2.23, 0.63, -0.65, -1.84, -1.33, -1.2, -0.57, 1.49, 7.2, 8.49, 6.9, 4.75, 4.75, 4.75, 8.14, 8.14, 8.14, 8.4, 8.4, 8.4, 8.16, 8.16, 8.43, 8.18, 8.46, 8.2, 8.85, 8.85, 9.49, 9.84, 9.84, 9.82, 10.12, 10.09, 10.09, 10.3, 10.94, 11.16, 11.62, 11.88, 11.75, 11.99, 11.41, 11.12, 10.42, 10.12, 9.39, 9.11, 8.77, 8.3, 7.97, 7.97, 7.58, 7.58, 6.68, 6.26, 5.36, 3.13, 2.6, 4.6, 4.3, 3.09, 2.6, 2.4, 1.9, 1.24, 0.71, -0.0, -0.71, -1.9, -2.4, -3.39, -2.6, -2.4, -0.99, -0.0, 1.9, 1.26, 0.57, 0.65, 0.65, 0.95, 0.0, 0.0, 1.26, 3.74, 6.28, 5.43, 5.64, 6.88, 6.64, 3.98, 2.0, 0.61, 1.8, 3.84, 5.08, 4.94, 3.07, 0.54, -0.61, -2.5, -2.17, -1.6, -0.95, -0.0, 2.5, 7.46, 7.32, 6.01, 5.72, 5.72, 7.96, 7.96, 8.16, 8.16, 8.16, 8.16, 8.43, 8.18, 8.18, 8.18, 8.46, 8.2, 8.2, 8.58, 9.22, 9.49, 10.13, 10.13, 10.12, 10.09, 10.06, 10.3, 10.59, 10.51, 10.7, 10.96, 11.36, 11.6, 11.41, 11.12, 10.91, 10.18, 9.86, 9.11, 8.67, 8.77, 8.33, 7.97, 7.97, 7.58, 7.13, 6.26, 5.36, 4.47, 3.98, 3.04, 3.51, 3.53, 2.17, 1.58, 1.24, 0.99, 0.8, -0.0, -0.6, -1.24, -1.9, -2.5, -1.86, -1.86, -1.26, -0.0, 0.63, 0.45, -0.57, -0.0, -0.0, 0.85, 0.45, 0.0, 0.57, 2.8, 7.6, 9.26, 9.3, 9.17, 8.3, 6.07, 4.3, 3.39, 2.23, 3.84, 4.04, 3.98, 3.88, 3.16, 2.53, -0.0, -1.7, -1.79, -1.7, -0.0, 1.49, 5.09, 6.32, 6.0, 5.72, 5.72, 7.73, 7.73, 8.16, 8.16, 8.16, 8.18, 8.18, 8.18, 8.46, 8.2, 8.2, 8.2, 8.2, 8.86, 8.86, 9.5, 9.84, 10.13, 10.12, 10.09, 10.06, 10.3, 10.23, 10.51, 10.79, 10.58, 10.83, 10.68, 10.71, 10.91, 10.91, 10.66, 10.34, 9.86, 9.54, 9.11, 8.77, 8.33, 8.41, 7.97, 7.13, 6.68, 5.81, 4.92, 4.02, 2.68, 3.58, 3.98, 2.63, 1.86, 1.24, 1.26, 0.6, -0.0, -0.0, -0.57, -1.2, -1.2, -1.88, -1.58, -1.26, -0.63, 0.45, -1.34, -1.26, -1.24, -0.71, -0.0, 1.6, 2.24, 1.58, 1.26, 4.02, 10.62, 12.07, 11.34, 10.28, 8.94, 7.67, 7.47, 4.27, 2.23, 2.17, 2.98, 4.94, 5.89, 6.1, 3.97, 1.79, -0.45, -1.26, -0.57, 1.0, 2.53, 5.09, 5.36, 5.36, 5.36, 7.73, 7.73, 7.92, 8.18, 8.18, 8.18, 8.18, 8.2, 8.2, 8.2, 7.95, 8.22, 8.22, 8.22, 8.86, 9.21, 9.5, 10.13, 9.82, 9.8, 10.36, 10.3, 10.23, 10.51, 10.41, 10.68, 10.3, 9.63, 9.6, 9.51, 10.42, 10.42, 10.18, 9.7, 9.86, 9.43, 9.11, 9.11, 8.77, 7.87, 7.51, 6.68, 5.79, 5.36, 4.92, 4.92, 4.92, 4.44, 3.53, 2.91, 2.4, 1.86, 1.6, 0.89, 0.45, -0.6, -0.54, -0.53, -0.61, -1.16, -1.26, -1.2, -0.63, -1.2, -1.26, -1.24, -0.8, 0.45, 1.34, 2.68, 2.24, 0.45, 0.63, 6.71, 12.87, 12.49, 7.92, 5.06, 5.09, 7.98, 7.92, 3.58, 2.91, 5.08, 6.51, 7.26, 7.74, 7.4, 3.58, 0.95, -0.57, -0.57, 0.57, 2.21, 4.12, 5.09, 4.75, 4.75, 7.5, 7.5, 7.76, 8.18, 8.18, 7.93, 8.2, 8.2, 7.95, 8.22, 8.22, 8.22, 8.22, 8.22, 8.87, 8.87, 9.5, 9.5, 9.8, 9.8, 10.09, 10.3, 10.59, 10.51, 10.41, 10.3, 9.76, 9.63, 9.35, 9.2, 9.01, 9.42, 9.51, 9.7, 9.7, 9.86, 9.39, 9.11, 8.64, 8.3, 7.51, 7.06, 6.23, 5.78, 5.36, 4.92, 4.92, 4.92, 4.44, 3.98, 3.07, 2.6, 2.12, 1.34, 0.89, -0.0, -0.0, -0.53, -0.61, -0.61, -0.61, -0.6, -0.0, -0.0, -0.57, -0.71, -0.57, -0.63, 0.0, 1.79, 1.86, 0.6, 0.63, 3.84, 11.84, 12.5, 3.82, 0.0, 1.79, 5.36, 8.84, 8.24, 7.33, 7.48, 8.42, 8.47, 8.87, 8.87, 5.31, 1.26, -0.71, -0.71, -0.0, 1.24, 3.07, 4.84, 4.73, 4.73, 7.76, 7.76, 7.76, 7.53, 8.2, 8.2, 8.2, 7.95, 8.22, 8.22, 7.96, 7.96, 8.23, 8.23, 8.59, 8.59, 8.87, 9.19, 9.8, 10.09, 10.09, 10.65, 10.59, 10.51, 10.79, 10.04, 9.76, 10.02, 10.02, 9.48, 9.2, 8.91, 9.01, 9.21, 9.21, 9.21, 9.21, 8.96, 8.48, 8.21, 7.87, 7.07, 6.61, 6.23, 5.78, 5.36, 5.36, 4.92, 4.47, 4.02, 3.58, 3.13, 2.68, 2.24, 1.34, 0.6, -0.0, -0.0, -0.0, -0.0, -0.99, -0.0, -0.0, -0.0, -0.0, -0.57, -1.26, -1.26, -0.63, -0.0, 0.57, 0.8, 2.24, 7.07, 11.83, 13.53, 8.94, 4.8, 5.95, 8.76, 10.52, 10.7, 10.28, 9.83, 8.94, 8.94, 8.94, 8.92, 7.01, 2.5, -0.0, -0.65, -0.0, 0.57, 1.9, 4.0, 4.66, 4.66, 7.53, 7.53, 7.53, 7.8, 8.2, 7.95, 7.95, 8.22, 8.22, 7.96, 7.96, 8.23, 8.23, 7.96, 8.24, 8.58, 8.58, 9.19, 9.48, 9.77, 9.77, 10.3, 10.3, 10.59, 10.51, 10.41, 10.3, 10.02, 10.02, 9.88, 9.6, 9.01, 8.91, 8.51, 8.51, 8.72, 8.72, 8.72, 8.48, 8.17, 7.74, 7.4, 7.06, 6.6, 6.23, 5.78, 5.34, 5.36, 4.92, 4.47, 4.02, 3.58, 3.13, 2.68, 2.24, 1.6, 0.57, 0.54, -0.0, -0.0, -0.61, -0.99, -0.0, -0.0, -0.0, -0.0, -0.95, -1.49, -1.26, -1.26, -0.0, 0.8, 4.47, 10.02, 12.37, 13.32, 13.21, 12.39, 13.23, 13.96, 12.96, 11.99, 10.54, 9.18, 8.02, 7.15, 7.13, 5.77, 4.73, 4.0, 1.84, 0.61, -0.0, -0.0, 1.26, 2.4, 3.82, 3.82, 7.53, 7.53, 7.8, 7.55, 7.55, 7.83, 8.22, 7.96, 7.96, 8.23, 8.23, 7.96, 7.96, 8.24, 8.24, 8.24, 8.87, 8.87, 9.48, 9.48, 9.77, 10.06, 10.3, 10.59, 10.51, 10.41, 10.3, 10.02, 9.63, 9.88, 9.48, 9.2, 8.8, 8.91, 8.51, 8.51, 8.3, 8.22, 8.0, 7.51, 7.26, 6.97, 6.94, 6.61, 6.23, 6.23, 5.78, 5.34, 4.89, 4.47, 4.47, 4.02, 3.58, 3.13, 2.68, 2.12, 1.58, 1.24, 0.71, -0.0, -0.0, -0.61, -1.2, -0.0, -0.0, -0.0, -0.95, -1.58, -1.24, -1.24, -0.8, -0.0, 2.98, 9.72, 12.07, 10.73, 10.62, 12.58, 14.87, 16.03, 14.75, 10.98, 6.64, 3.39, 2.68, 3.07, 3.53, 3.82, 3.6, 3.72, 3.14, 2.23, 1.24, 0.57, 1.26, 1.49, 3.32, 3.32, 7.8, 7.8, 7.55, 7.55, 7.83, 7.57, 7.57, 7.57, 8.23, 8.23, 7.96, 7.96, 8.24, 8.24, 8.24, 7.96, 8.56, 8.87, 9.17, 9.48, 9.77, 10.06, 10.06, 10.59, 10.23, 10.51, 10.41, 10.3, 10.02, 9.88, 9.48, 8.96, 9.2, 8.68, 8.51, 8.0, 8.22, 7.81, 7.51, 7.26, 6.79, 6.94, 6.47, 5.31, 6.23, 6.16, 6.16, 5.7, 5.33, 4.89, 4.44, 4.43, 3.98, 3.58, 3.13, 2.6, 1.86, 1.58, 0.71, -0.0, -0.0, -0.0, -0.0, -0.0, -0.0, -0.0, -0.6, -1.24, -1.49, -0.71, -0.57, -0.0, 1.49, 9.21, 12.3, 9.83, 6.79, 9.54, 13.21, 14.6, 13.34, 8.84, 3.09, 0.89, 0.6, 1.9, 2.68, 3.6, 3.6, 4.0, 4.0, 3.14, 2.5, 1.58, 1.26, 1.49, 2.12, 2.6, 7.55, 7.55, 7.55, 7.83, 7.57, 7.57, 7.57, 7.85, 7.96, 7.96, 7.96, 8.24, 8.24, 7.96, 7.96, 7.96, 8.24, 8.56, 8.87, 9.17, 9.17, 10.06, 10.06, 9.72, 10.01, 10.51, 10.41, 10.68, 10.3, 10.02, 9.88, 9.35, 9.2, 8.68, 8.51, 8.0, 7.81, 7.31, 7.09, 6.79, 6.79, 6.47, 6.04, 5.31, 5.78, 6.16, 6.16, 5.57, 5.24, 5.24, 4.77, 4.44, 3.98, 3.58, 3.13, 2.68, 2.17, 1.86, 0.99, -0.0, -0.0, -0.0, -0.0, -0.0, -0.0, -0.0, -0.0, -0.57, -0.71, -0.71, -0.57, -0.95, 0.6, 6.36, 12.37, 11.18, 5.31, 7.33, 11.37, 13.33, 11.58, 8.02, 3.97, 2.5, 1.9, 2.5, 3.45, 3.6, 4.0, 4.3, 4.3, 3.82, 3.39, 2.4, 2.12, 1.7, 2.12, 2.12, 7.55, 7.55, 7.57, 7.57, 7.57, 7.57, 7.85, 7.59, 7.96, 7.96, 8.24, 8.24, 7.96, 7.96, 8.24, 8.24, 8.24, 8.24, 8.56, 8.85, 9.46, 9.46, 9.72, 9.72, 10.01, 9.66, 10.15, 10.41, 10.3, 10.02, 9.63, 9.35, 9.2, 8.68, 8.51, 8.0, 7.81, 7.31, 7.01, 6.79, 6.72, 6.3, 5.88, 5.57, 5.16, 6.16, 6.04, 5.51, 5.09, 4.77, 4.77, 4.34, 3.98, 3.98, 3.58, 3.13, 2.6, 2.12, 1.26, -0.0, -0.0, -0.0, -0.0, -0.0, -0.0, -0.0, -0.0, -0.57, -1.24, -0.85, -0.0, -0.0, 0.45, 2.24, 8.8, 10.9, 9.2, 5.32, 7.67, 7.95, 4.66, 3.13, 3.45, 4.66, 4.66, 4.52, 5.64, 5.2, 4.73, 6.22, 4.88, 4.43, 3.98, 3.97, 2.68, 2.24, 2.24, 2.12, 7.31, 7.31, 7.57, 7.57, 7.57, 7.85, 7.59, 7.59, 7.96, 7.96, 8.24, 8.24, 7.96, 7.96, 8.24, 8.24, 8.24, 8.24, 8.85, 8.85, 9.13, 9.13, 9.46, 9.46, 9.66, 9.66, 9.94, 10.23, 10.04, 10.3, 10.02, 9.48, 9.2, 8.68, 8.51, 8.0, 7.71, 7.31, 7.01, 6.6, 6.79, 6.3, 5.88, 5.81, 5.81, 5.59, 5.57, 5.09, 4.6, 4.6, 4.34, 4.34, 3.87, 3.98, 3.58, 3.13, 2.68, 2.24, 1.6, 0.8, -0.0, -0.0, -0.0, -0.0, -0.0, -0.0, -0.0, -0.0, -0.71, -0.85, -0.57, 0.45, 0.0, 0.0, 2.12, 7.76, 9.3, 8.67, 4.92, 2.4, 0.89, 1.9, 5.31, 8.67, 8.48, 7.01, 4.92, 4.47, 5.81, 6.26, 6.26, 5.36, 4.92, 5.81, 4.92, 3.13, 3.13, 3.13, 7.57, 7.57, 7.57, 7.57, 7.59, 7.59, 7.59, 7.59, 7.96, 8.24, 8.24, 7.96, 7.96, 7.96, 8.24, 8.24, 8.24, 7.95, 7.95, 8.53, 8.85, 9.13, 9.42, 9.42, 9.42, 9.42, 9.37, 9.59, 9.86, 10.13, 10.02, 9.88, 8.96, 8.68, 8.51, 8.0, 7.71, 7.31, 7.09, 7.01, 6.6, 6.72, 6.3, 6.3, 6.0, 5.81, 5.57, 5.09, 4.6, 4.34, 4.3, 4.3, 3.87, 3.98, 3.53, 3.13, 2.68, 2.24, 1.79, 0.6, -0.0, -0.0, -0.0, -0.0, -0.0, -0.0, -0.0, -0.0, -0.71, -1.2, -0.57, -0.45, 0.0, 0.0, 0.8, 3.04, 8.01, 10.93, 10.25, 6.54, 5.01, 6.98, 10.65, 12.08, 11.09, 8.36, 4.02, 3.97, 4.73, 6.07, 6.11, 5.64, 4.73, 5.16, 4.66, 3.74, 3.74, 3.74, 7.16, 7.16, 7.57, 7.32, 7.59, 7.59, 7.59, 7.96, 8.24, 8.24, 7.96, 7.96, 7.96, 8.24, 8.24, 8.24, 7.95, 7.95, 8.24, 8.53, 8.53, 8.82, 9.08, 9.08, 9.08, 9.08, 9.37, 9.37, 9.66, 9.76, 9.76, 9.63, 9.35, 9.2, 8.28, 8.0, 7.71, 7.31, 7.31, 7.01, 7.01, 6.6, 6.51, 6.1, 6.23, 5.81, 5.99, 5.51, 5.09, 4.77, 4.3, 3.87, 3.87, 3.53, 3.53, 3.09, 3.13, 2.68, 1.79, 0.63, -0.0, -0.0, -0.0, -0.0, -0.0, -0.0, -0.0, -0.0, -0.71, -0.71, -0.57, -0.45, 0.0, 0.0, 1.2, 2.53, 6.07, 10.7, 12.87, 12.86, 12.87, 13.68, 14.75, 14.11, 10.88, 8.19, 4.43, 3.97, 4.0, 5.05, 4.52, 4.4, 4.4, 5.05, 4.8, 3.83, 3.83, 3.83, 6.92, 6.92, 7.32, 7.59, 7.59, 7.59, 7.59, 8.24, 8.24, 8.24, 7.96, 7.96, 7.96, 8.24, 8.24, 7.95, 7.95, 7.95, 8.24, 8.24, 8.53, 8.82, 8.82, 9.08, 9.37, 9.37, 9.37, 9.02, 9.3, 9.3, 9.76, 9.63, 9.48, 8.96, 8.68, 8.4, 8.0, 7.71, 7.31, 7.2, 7.01, 7.01, 6.6, 6.1, 6.0, 5.81, 5.81, 5.57, 5.51, 5.09, 4.77, 4.3, 3.87, 3.53, 3.53, 3.07, 3.07, 3.07, 2.12, 0.63, -0.0, -0.0, -0.0, -0.0, -0.0, -0.0, -0.0, -0.0, -0.71, -1.24, -0.8, -0.0, 0.0, 0.8, 1.58, 2.4, 4.02, 8.46, 11.66, 12.13, 13.46, 15.29, 16.09, 14.01, 10.38, 7.84, 7.28, 4.47, 4.0, 3.14, 5.01, 2.53, 3.16, 3.84, 2.84, 2.53, 2.53, 2.53, 6.92, 6.92, 7.59, 7.59, 7.59, 7.59, 7.87, 8.24, 8.24, 7.96, 7.96, 7.96, 7.96, 8.24, 8.24, 7.95, 7.95, 7.95, 8.24, 8.24, 8.24, 8.22, 8.5, 8.78, 8.78, 9.02, 9.02, 9.02, 9.3, 8.94, 9.21, 9.48, 9.1, 9.35, 9.2, 8.68, 8.0, 7.6, 7.71, 7.31, 6.8, 6.8, 6.6, 6.51, 6.1, 5.6, 5.81, 5.4, 5.31, 5.09, 4.66, 4.34, 3.87, 3.39, 3.53, 3.09, 3.09, 2.91, 2.17, 0.95, -0.0, -0.0, -0.0, 0.65, 0.54, -0.0, -0.0, -0.0, -0.57, -1.24, -1.58, -0.32, 0.0, 0.63, 1.34, 1.79, 2.68, 6.21, 7.98, 8.03, 10.18, 14.13, 16.14, 13.6, 10.53, 8.25, 7.48, 6.26, 3.32, 3.48, 2.48, 1.2, 1.4, 1.4, 1.4, 1.4, 1.4, 1.4, 6.92, 6.92, 7.19, 7.59, 7.59, 7.87, 7.87, 7.96, 7.96, 7.96, 7.96, 7.96, 8.24, 8.24, 7.95, 7.95, 7.95, 7.95, 8.24, 8.24, 7.93, 8.22, 8.22, 8.78, 8.78, 8.78, 8.78, 9.08, 8.73, 8.73, 9.01, 8.84, 9.1, 9.35, 8.96, 8.68, 8.51, 8.0, 7.48, 7.71, 7.31, 6.8, 6.8, 6.51, 6.1, 6.0, 5.6, 5.81, 5.31, 5.31, 5.09, 4.6, 4.34, 3.87, 3.53, 3.53, 3.39, 3.39, 2.6, 1.2, -0.0, -0.0, 0.54, 1.2, 1.2, -0.0, -0.0, -0.0, -0.0, -0.6, -1.58, -0.63, 0.89, 0.89, 1.79, 2.24, 3.47, 5.59, 5.43, 4.74, 6.64, 12.47, 15.9, 13.15, 9.78, 6.8, 4.02, 3.13, 1.6, 0.0, 0.0, 0.0, 0.0, 0.0, 0.0, 0.61, 0.61, 0.61, 6.92, 6.92, 7.19, 7.33, 7.33, 7.6, 7.6, 7.96, 7.96, 7.96, 7.96, 7.96, 8.24, 8.24, 7.95, 7.95, 7.95, 7.95, 8.24, 8.24, 8.24, 8.22, 7.9, 8.19, 8.45, 8.73, 8.73, 8.73, 8.73, 8.73, 8.65, 8.65, 8.65, 8.93, 8.82, 8.68, 8.68, 8.4, 8.0, 7.48, 7.71, 7.31, 6.8, 6.28, 6.51, 6.0, 5.6, 5.6, 5.31, 5.31, 4.9, 5.02, 4.6, 4.3, 3.39, 3.39, 3.39, 3.39, 2.63, 1.7, 0.8, 0.57, 0.54, 1.2, 1.16, -0.0, -0.0, -0.0, -0.0, -0.0, -0.0, -0.6, -0.0, 0.45, 0.89, 1.34, 2.68, 3.6, 4.81, 3.72, 4.74, 9.3, 12.52, 10.46, 8.24, 3.72, 0.89, -1.26, -1.7, -1.26, -1.24, -0.61, -0.59, -0.7, 0.0, 0.0, 0.0, 0.0, 7.19, 7.19, 7.19, 7.33, 7.33, 7.6, 7.6, 7.96, 7.96, 7.96, 7.96, 8.24, 8.24, 8.24, 7.95, 7.95, 7.95, 8.24, 8.24, 8.24, 7.93, 8.22, 7.9, 7.9, 8.19, 8.73, 8.73, 8.73, 8.38, 8.65, 8.65, 8.29, 8.29, 8.55, 8.55, 8.43, 8.68, 8.28, 8.4, 8.0, 7.81, 7.31, 7.2, 6.8, 6.28, 6.1, 6.0, 5.6, 5.47, 5.31, 4.9, 4.8, 4.6, 4.6, 3.87, 3.87, 3.82, 3.39, 3.13, 1.79, 1.2, 0.8, 0.71, 1.2, 1.16, -0.0, -0.0, -0.0, -0.0, -0.0, -0.0, -0.0, -0.95, 0.89, 0.89, 0.45, 0.95, 1.2, 1.8, 2.53, 3.43, 5.37, 6.79, 8.53, 7.59, 3.07, -4.0, -4.66, -3.32, -2.12, -1.24, -1.33, -1.27, -1.41, -1.41, -1.41, -1.41, -1.41, 7.19, 7.19, 6.94, 7.33, 7.33, 7.6, 7.6, 7.96, 7.96, 7.96, 8.24, 8.24, 8.24, 8.24, 7.95, 7.95, 7.95, 8.24, 8.24, 8.24, 7.93, 7.9, 7.6, 7.6, 8.19, 8.19, 8.73, 8.38, 8.65, 8.65, 8.29, 8.37, 8.37, 8.0, 8.0, 8.27, 8.27, 8.15, 8.15, 8.0, 8.0, 7.71, 7.31, 6.8, 6.28, 6.28, 6.0, 5.6, 5.6, 5.31, 5.31, 4.8, 4.4, 4.52, 4.11, 4.11, 3.87, 3.82, 3.09, 2.24, 1.79, 0.6, 0.57, 0.54, 0.65, -0.0, -0.0, -0.57, -0.0, -0.0, -0.0, -0.0, -0.45, -1.34, -1.34, -1.34, 0.89, -0.0, -0.0, 0.65, 2.3, 2.98, 3.9, 7.06, 9.08, -0.57, -4.12, -6.32, -6.25, -2.5, -1.24, -1.4, -2.07, -2.3, -2.0, -2.2, -2.2, -2.2, 7.19, 6.94, 6.94, 6.94, 7.33, 7.6, 7.6, 7.6, 7.96, 8.24, 8.24, 8.24, 8.24, 7.95, 7.95, 7.95, 7.95, 8.24, 8.24, 7.93, 7.93, 8.22, 7.6, 7.6, 7.6, 8.19, 8.15, 8.15, 8.44, 8.08, 8.08, 8.37, 8.0, 8.0, 8.0, 7.9, 7.9, 8.15, 8.15, 8.15, 8.0, 8.0, 7.71, 7.31, 6.8, 6.28, 5.89, 6.0, 5.6, 5.08, 5.08, 4.8, 4.8, 4.4, 4.52, 4.11, 4.11, 3.87, 3.53, 3.07, 2.24, 1.26, 0.57, 0.71, 0.71, -0.0, -0.8, -1.26, -0.6, -0.0, -0.0, -0.0, -0.0, -0.63, -1.79, -1.79, -1.34, -0.89, -0.6, -0.0, 1.4, 2.3, 3.07, 6.0, 6.26, 0.0, -2.51, -4.75, -6.98, -5.37, -1.84, -1.4, -1.88, -2.15, -2.79, -2.79, -2.79, -2.79, 6.94, 6.94, 6.94, 6.94, 7.33, 7.6, 7.6, 7.6, 8.24, 8.24, 8.24, 8.24, 7.95, 7.95, 7.95, 7.95, 7.95, 8.24, 8.24, 7.93, 8.22, 8.22, 7.9, 7.6, 7.3, 7.59, 7.86, 8.15, 8.15, 8.08, 8.08, 8.0, 8.0, 8.27, 7.9, 7.9, 7.9, 7.9, 8.15, 8.15, 7.76, 8.0, 7.48, 7.48, 7.2, 6.8, 6.28, 5.75, 5.6, 5.47, 5.08, 5.08, 4.8, 4.4, 4.4, 4.27, 4.11, 3.87, 3.87, 3.53, 2.68, 2.12, 1.26, 1.26, 0.8, -0.0, -0.95, -1.79, -1.34, -0.63, -0.0, 0.45, 0.0, -0.0, -0.45, 0.45, 0.0, -0.45, -0.6, -0.0, 0.54, 2.15, 2.79, 9.26, 7.12, 1.88, -1.27, -2.51, -5.38, -6.32, -4.29, -2.0, -1.84, -2.15, -2.84, -2.07, -2.07, -2.07, 6.94, 6.94, 6.94, 6.94, 6.94, 7.6, 7.6, 7.6, 8.24, 8.24, 7.95, 7.95, 7.95, 7.95, 7.95, 7.95, 7.95, 8.24, 8.24, 7.93, 8.22, 8.22, 7.9, 7.9, 7.59, 7.59, 7.59, 7.59, 8.15, 7.81, 8.08, 7.73, 8.0, 8.0, 7.9, 7.9, 7.72, 7.35, 7.61, 7.76, 7.76, 7.76, 7.87, 7.48, 6.95, 6.8, 6.28, 6.28, 5.75, 5.6, 5.47, 5.08, 4.8, 4.8, 4.4, 4.4, 4.11, 4.11, 3.87, 3.58, 3.13, 2.17, 1.7, 1.6, 1.2, -0.0, -1.26, -3.13, -2.24, -1.34, -0.45, -0.89, -0.45, -0.0, -0.0, 0.0, 0.0, -0.45, -0.6, -0.0, -0.0, 1.2, 5.09, 6.54, 4.3, 1.24, -1.23, -2.07, -4.09, -5.72, -5.0, -2.88, -2.07, -2.51, -2.79, -2.07, -2.07, -2.07, 6.94, 6.94, 6.94, 6.94, 6.94, 7.6, 7.6, 7.6, 7.89, 8.24, 7.95, 7.95, 7.95, 7.95, 7.95, 7.95, 7.95, 7.95, 8.24, 7.93, 7.93, 8.22, 7.9, 8.19, 7.59, 7.59, 7.59, 7.59, 7.55, 7.55, 7.51, 7.51, 7.8, 7.44, 7.44, 7.72, 7.72, 7.35, 7.35, 7.61, 7.61, 7.61, 7.61, 7.48, 6.95, 6.95, 6.41, 6.28, 5.75, 5.75, 5.47, 5.08, 4.55, 4.55, 4.8, 4.4, 4.11, 4.11, 3.82, 3.53, 3.13, 2.68, 2.24, 1.79, 1.2, 0.63, -0.0, -2.68, -2.68, -2.24, -1.79, -1.34, -1.79, -1.34, -0.95, -0.0, 0.0, -0.45, -0.0, -0.0, -0.0, 0.57, 2.84, 3.49, 1.86, 0.0, -1.6, -2.15, -2.79, -5.09, -5.06, -2.88, -2.07, -3.07, -2.84, -1.88, -1.88, -1.88, 6.94, 6.94, 6.94, 6.94, 6.94, 7.22, 7.6, 7.6, 7.6, 8.24, 7.95, 7.95, 7.95, 7.95, 7.95, 7.95, 7.95, 7.95, 8.24, 7.61, 7.61, 8.22, 7.9, 8.19, 7.86, 7.59, 7.27, 7.55, 7.55, 7.55, 7.23, 7.51, 7.51, 7.44, 7.44, 7.44, 7.72, 7.35, 7.35, 7.35, 7.61, 7.61, 7.23, 7.23, 6.95, 6.95, 6.41, 6.03, 6.28, 5.75, 5.37, 5.47, 5.08, 4.55, 4.55, 4.4, 3.88, 4.11, 3.82, 3.39, 3.07, 2.68, 2.24, 1.79, 1.79, 1.34, 0.45, -0.89, -3.13, -2.68, -2.24, -2.68, -2.24, -1.79, -1.26, -0.0, 0.45, 0.45, -0.45, -0.45, -0.0, 0.6, 1.9, 2.5, 2.17, 0.0, -1.58, -2.15, -2.68, -4.09, -5.06, -3.38, -2.07, -1.49, -1.49, -1.2, -1.2, -1.2, 6.94, 6.94, 6.94, 6.94, 6.94, 7.22, 6.96, 7.33, 7.33, 7.61, 7.95, 7.95, 7.95, 7.95, 7.95, 7.95, 7.95, 8.24, 7.61, 7.61, 7.61, 7.61, 7.6, 8.19, 7.86, 8.15, 7.55, 7.55, 7.55, 7.23, 7.51, 7.51, 7.17, 7.17, 7.44, 7.44, 7.44, 7.35, 7.35, 7.35, 7.35, 7.61, 7.23, 7.07, 6.7, 6.95, 6.41, 6.41, 6.28, 6.13, 5.75, 5.47, 5.08, 4.93, 4.55, 4.4, 4.27, 4.11, 3.6, 3.39, 2.91, 3.07, 2.6, 2.24, 1.79, 1.79, 1.34, 0.45, -1.79, -2.68, -2.24, -2.68, -2.24, -2.24, -1.79, 0.89, 0.45, 0.45, -0.63, -0.89, 0.45, 0.0, 1.34, 2.68, 3.53, 2.12, -1.2, -2.24, -2.6, -3.07, -4.46, -4.11, -1.4, -0.6, -0.6, -1.24, -1.24, -1.24, 6.94, 6.94, 6.94, 6.94, 6.94, 7.22, 6.96, 6.96, 7.33, 7.61, 7.61, 7.95, 7.95, 7.95, 7.95, 7.95, 8.24, 8.24, 7.61, 7.61, 7.61, 7.32, 7.6, 7.9, 7.86, 7.86, 8.15, 7.55, 7.55, 7.51, 7.51, 7.51, 7.17, 7.17, 7.44, 7.44, 7.44, 7.35, 7.35, 7.35, 7.35, 7.61, 7.23, 7.07, 6.7, 6.79, 6.41, 6.41, 6.03, 6.28, 6.13, 5.37, 5.47, 5.08, 4.93, 4.55, 4.27, 3.88, 3.6, 3.2, 3.32, 2.91, 2.63, 2.6, 2.17, 1.79, 1.79, 1.2, 0.0, -1.7, -2.12, -2.54, -2.54, -1.2, -0.95, -0.95, 0.0, 0.63, 0.0, -0.45, -0.45, 0.0, 0.95, 3.07, 4.47, 4.02, 1.26, -1.7, -1.79, -1.86, -1.9, -1.84, -0.53, 0.0, -0.0, -0.61, -0.61, -0.61, 6.53, 6.53, 6.94, 6.94, 6.94, 7.22, 6.96, 6.96, 6.96, 7.61, 7.61, 7.61, 7.95, 7.95, 7.95, 7.61, 7.9, 7.61, 7.61, 7.61, 7.61, 7.6, 7.6, 7.6, 7.9, 7.86, 8.15, 7.55, 7.55, 7.51, 7.51, 7.51, 7.17, 7.44, 7.44, 7.44, 7.44, 7.35, 7.35, 7.35, 7.35, 7.23, 7.07, 7.07, 6.7, 6.41, 6.41, 6.41, 6.03, 6.03, 6.28, 5.75, 5.37, 5.47, 5.08, 4.55, 4.55, 4.27, 3.72, 3.6, 3.2, 3.32, 2.91, 2.63, 2.6, 2.17, 2.12, 1.7, 0.95, -0.8, -2.5, -1.86, -1.86, -1.26, -0.6, -0.6, 0.0, 0.0, 1.34, 0.0, -0.89, 0.0, 1.26, 3.32, 5.77, 7.6, 3.97, 0.6, -0.95, 0.0, 0.0, 0.54, 1.58, 1.49, -0.0, -0.7, -0.7, -0.7, 6.53, 6.53, 6.53, 6.94, 6.94, 6.96, 6.96, 6.96, 6.96, 7.24, 7.61, 7.61, 7.61, 7.95, 7.95, 7.61, 7.9, 7.61, 7.61, 7.61, 7.61, 7.6, 7.6, 7.6, 7.3, 7.59, 7.59, 7.55, 7.55, 7.51, 7.51, 7.51, 7.44, 7.44, 7.44, 7.44, 7.09, 7.35, 7.35, 7.35, 7.35, 6.79, 7.07, 6.7, 6.7, 6.41, 6.41, 6.41, 6.03, 6.03, 6.03, 5.75, 5.75, 5.37, 5.08, 5.08, 4.55, 4.27, 3.88, 3.35, 3.6, 3.2, 3.32, 2.91, 2.91, 2.6, 2.17, 2.12, 1.7, 0.0, -1.9, -1.86, -1.26, -1.9, -0.6, -0.6, 0.0, 0.0, 1.34, 0.0, -0.45, 0.0, 1.24, 3.07, 6.07, 8.49, 8.05, 3.58, 1.7, 1.26, 1.58, 2.91, 3.13, 2.91, 1.33, -0.0, -0.0, -0.0, 6.53, 6.53, 6.53, 6.53, 6.7, 6.96, 6.96, 6.96, 6.96, 6.97, 6.97, 7.61, 7.61, 7.61, 7.61, 7.61, 7.9, 7.61, 7.61, 7.61, 7.32, 7.6, 7.6, 7.6, 7.59, 7.59, 7.59, 7.55, 7.55, 7.23, 7.51, 7.51, 7.44, 7.44, 7.44, 7.44, 7.35, 7.35, 7.35, 7.35, 7.35, 7.07, 7.07, 6.7, 6.7, 6.41, 6.41, 6.41, 6.03, 6.03, 6.28, 6.28, 5.75, 5.75, 5.47, 5.08, 4.93, 4.55, 4.27, 3.88, 3.35, 3.6, 3.2, 3.32, 2.91, 2.91, 2.4, 2.4, 1.86, 1.26, 0.0, -1.24, -1.26, -1.26, -0.6, -0.6, 0.0, 0.0, 0.89, 0.0, 0.45, 0.0, 1.24, 3.07, 5.64, 8.49, 9.36, 8.8, 6.66, 4.02, 3.58, 3.58, 3.97, 3.39, 1.88, -0.0, -0.0, -0.0, 6.53, 6.53, 6.53, 6.53, 6.7, 6.96, 6.96, 6.96, 6.96, 6.97, 6.97, 7.61, 7.61, 7.61, 7.61, 7.61, 7.9, 7.61, 7.61, 7.61, 7.32, 7.6, 7.6, 7.6, 7.59, 7.59, 7.59, 7.55, 7.55, 7.23, 7.51, 7.51, 7.44, 7.44, 7.44, 7.44, 7.35, 7.35, 7.35, 7.35, 7.35, 7.07, 7.07, 6.7, 6.7, 6.41, 6.41, 6.41, 6.03, 6.03, 6.28, 6.28, 5.75, 5.75, 5.47, 5.08, 4.93, 4.55, 4.27, 3.88, 3.35, 3.6, 3.2, 3.32, 2.91, 2.91, 2.4, 2.4, 1.86, 1.26, 0.0, -1.24, -1.26, -1.26, -0.6, -0.6, 0.0, 0.0, 0.89, 0.0, 0.45, 0.0, 1.24, 2.86, 5.16, 8.49, 10.25, 10.49, 10.52, 10.01, 9.33, 7.89, 6.79, 4.93, 2.5, 0.65, 0.65, 0.65]}, {"header": {"dx": 0.06612293990616946, "dy": 0.0552356325346848, "nx": 98, "ny": 59, "la1": 35.046912555036876, "la2": 31.78801023549047, "lo1": -121.43107172385933, "lo2": -114.95102361305473, "refTime": "2026041607", "parameterCategory": 1, "parameterNumber": 3}, "data": [-15.49, -15.49, -14.95, -14.29, -12.82, -11.99, -10.51, -9.3, -8.65, -7.44, -6.23, -5.21, -2.8, -1.49, -1.2, -1.34, -2.68, -3.51, -3.6, -3.58, -3.48, -2.53, -1.88, -1.9, -1.86, -2.6, -2.6, -2.68, -3.13, -3.07, -2.8, -2.5, -1.88, -1.16, -0.59, 0.0, 0.0, -0.69, -0.78, -0.7, -0.57, -0.66, -3.22, -5.46, -7.68, -8.61, -10.35, -10.91, -3.09, 3.32, 6.4, 6.08, 6.39, 6.68, 7.68, 7.97, 7.52, 7.44, 6.97, 6.09, 5.95, 5.64, 6.24, 6.32, 6.24, 7.18, 6.97, 7.12, 7.01, 6.9, 6.21, 5.18, 3.91, 3.72, 4.43, 5.59, 5.64, 4.8, 3.82, 2.18, 1.2, 1.9, 1.26, -0.0, -0.0, -0.0, 0.63, 0.63, 0.0, 0.0, -2.26, -3.8, -4.5, -5.18, -3.7, -1.47, 0.0, 0.0, -15.74, -15.49, -15.21, -14.67, -13.75, -12.27, -11.07, -9.94, -9.3, -8.65, -7.09, -5.46, -2.86, -1.24, -1.2, 0.0, -0.89, -2.68, -3.2, -3.83, -4.43, -4.43, -2.15, -1.49, -1.49, -1.7, -1.79, -1.79, -2.24, -2.68, -2.63, -2.4, -1.9, -0.53, -0.59, 0.0, -0.67, -0.79, -1.45, -1.52, -2.29, -3.2, -6.4, -9.17, -11.7, -13.12, -12.73, -5.28, 2.8, 6.28, 6.07, 6.44, 6.7, 7.33, 7.61, 8.3, 8.6, 7.73, 7.12, 6.87, 6.45, 6.05, 6.95, 6.95, 7.27, 7.18, 7.44, 7.63, 7.54, 7.44, 6.9, 6.09, 3.91, 4.01, 4.43, 5.59, 5.18, 4.8, 3.82, 2.18, 1.2, 1.9, 1.26, -0.0, -0.0, -0.0, 0.63, 0.63, 0.0, 0.0, -2.26, -3.8, -4.5, -5.18, -3.7, -1.47, 0.0, 0.0, -15.74, -15.74, -15.21, -14.82, -14.29, -12.82, -11.72, -10.51, -9.94, -9.3, -8.37, -6.7, -3.84, -2.21, -1.24, -0.6, -0.63, -2.24, -3.51, -3.6, -3.84, -5.59, -6.18, -3.79, -2.23, -1.2, -0.45, -0.45, -0.89, -2.17, -3.13, -3.13, -2.6, -1.58, -1.16, -0.87, -1.41, -2.26, -2.99, -3.8, -5.78, -8.09, -10.75, -13.07, -13.67, -12.56, -6.31, 1.88, 6.0, 5.82, 5.43, 6.08, 6.06, 7.06, 7.59, 8.03, 7.9, 7.73, 6.87, 6.87, 6.45, 6.79, 7.27, 7.97, 7.59, 7.9, 8.16, 8.37, 8.56, 8.72, 7.82, 6.31, 4.71, 3.11, 1.84, 3.11, 3.21, 4.65, 3.53, 2.31, 1.33, 1.79, 0.57, -0.0, -0.0, 0.54, 0.6, 0.0, -0.53, -2.12, -3.78, -4.6, -4.37, -2.73, -0.61, 0.0, 0.59, 0.63, -15.74, -15.74, -15.21, -15.21, -14.29, -13.36, -12.27, -11.62, -10.51, -9.86, -9.21, -7.9, -5.46, -3.45, -1.9, -1.24, -0.99, -1.86, -2.68, -3.51, -3.07, -3.22, -5.37, -6.06, -4.43, -1.9, -0.95, -0.45, 0.0, -1.79, -4.41, -5.77, -5.31, -3.58, -2.8, -2.95, -3.22, -3.99, -6.14, -7.73, -9.31, -10.98, -11.06, -8.79, -6.71, -2.99, 1.55, 5.37, 5.69, 5.37, 5.38, 5.43, 5.43, 6.08, 6.7, 7.02, 6.88, 7.08, 6.09, 6.09, 5.95, 6.88, 7.64, 7.97, 8.65, 8.6, 9.23, 9.83, 10.43, 10.65, 9.54, 7.93, 5.4, 3.4, 1.33, 0.0, 0.0, 0.76, 3.07, 1.56, 0.66, 1.26, -0.0, -0.0, -0.0, -0.0, 0.0, -0.57, -2.07, -4.5, -5.3, -4.6, -1.4, 0.0, 1.26, 1.88, 0.66, 0.0, -15.74, -15.74, -15.21, -15.21, -14.82, -13.75, -12.82, -11.9, -11.07, -10.15, -9.5, -8.55, -5.46, -3.22, -2.5, -2.5, -1.9, -1.58, -2.4, -3.13, -3.6, -2.84, -2.84, -4.19, -4.65, -4.19, -2.21, -2.12, -1.34, -1.7, -3.13, -6.21, -8.36, -9.36, -8.87, -8.37, -7.76, -8.41, -10.24, -10.86, -10.12, -7.73, -3.8, -0.74, 0.0, 1.55, 3.91, 4.46, 4.83, 5.0, 5.06, 4.74, 5.09, 5.82, 6.06, 6.32, 5.49, 5.28, 6.2, 5.63, 5.28, 6.32, 7.33, 8.32, 9.3, 9.27, 9.27, 9.62, 10.18, 10.68, 9.95, 8.74, 7.93, 5.99, 3.09, 0.0, -2.07, -2.26, 0.0, 1.33, 0.0, 0.0, -0.6, -0.0, -0.0, -0.57, -1.24, -2.2, -4.6, -5.95, -5.52, -2.07, 0.0, 2.12, 2.8, 1.84, 0.63, 0.0, -15.74, -15.74, -15.35, -14.95, -14.57, -14.03, -13.36, -12.27, -11.16, -10.51, -9.86, -9.1, -5.09, -2.86, -2.21, -2.23, -2.4, -2.23, -2.86, -3.53, -5.75, -6.7, -6.87, -4.47, -4.43, -5.59, -5.95, -4.98, -3.58, -3.13, -2.6, -3.07, -5.81, -9.39, -10.7, -10.05, -9.49, -9.3, -10.24, -9.27, -7.33, -4.47, -1.6, -0.73, 0.0, 1.52, 3.91, 4.56, 5.3, 4.65, 3.64, 4.43, 4.74, 5.09, 4.65, 4.83, 4.46, 4.46, 4.71, 4.8, 5.49, 6.08, 7.67, 8.3, 8.93, 9.3, 8.6, 7.97, 8.27, 8.29, 7.71, 7.82, 9.54, 8.74, 6.9, 3.02, -0.66, -2.53, -1.27, 0.73, 0.0, -1.88, -2.68, -1.88, -2.53, -3.13, -4.84, -6.14, -6.2, -6.05, -5.3, -2.15, 1.2, 2.17, 2.68, 1.8, 0.67, 0.0, -15.74, -15.74, -15.1, -14.95, -14.57, -14.4, -13.48, -12.82, -11.72, -11.07, -10.41, -9.1, -5.46, -2.21, -2.2, -1.24, -1.9, -3.83, -4.84, -5.05, -3.53, -4.0, -7.64, -9.62, -8.58, -7.76, -8.8, -9.33, -8.24, -5.75, -2.68, -2.17, -2.4, -4.4, -7.76, -9.28, -9.83, -9.67, -7.59, -6.08, -3.58, -2.53, -3.22, -2.99, 0.0, 3.72, 6.06, 6.01, 5.3, 4.21, 4.46, 3.64, 4.36, 4.36, 3.9, 3.79, 3.79, 3.2, 3.6, 4.0, 4.65, 5.82, 6.94, 7.6, 7.67, 7.64, 7.59, 5.49, 4.46, 4.8, 4.65, 5.29, 5.6, 5.62, 5.51, 5.41, 2.99, 0.0, 0.0, 0.0, -0.63, -3.79, -4.93, -4.02, -4.43, -7.01, -8.63, -7.97, -6.79, -6.24, -5.09, -1.7, 1.34, 2.24, 1.88, 0.57, 0.0, 0.0, -15.35, -15.35, -15.1, -14.95, -14.57, -14.4, -14.03, -13.2, -12.27, -11.07, -10.04, -9.48, -5.82, -3.16, -3.22, -1.4, -2.15, -3.79, -4.46, -3.07, -0.7, 0.0, -1.86, -7.6, -11.12, -10.8, -11.13, -10.38, -8.8, -7.81, -6.61, -4.92, -4.82, -5.75, -7.6, -8.91, -10.32, -9.2, -6.52, -2.21, -0.8, -0.8, -1.58, 0.0, 2.68, 4.82, 6.0, 6.06, 5.59, 4.21, 2.98, 3.72, 4.36, 4.65, 4.16, 3.55, 3.79, 3.2, 3.09, 3.2, 4.01, 5.34, 5.34, 6.07, 6.08, 6.32, 6.14, 3.91, 1.6, 1.49, 2.21, 2.31, 1.52, 0.75, 0.76, 1.36, 3.91, 3.82, 2.31, 1.48, 0.0, -4.87, -6.9, -7.33, -7.92, -8.25, -8.49, -8.32, -6.95, -5.43, -3.07, -0.0, 0.95, 0.8, 0.0, 0.0, -0.71, 0.0, -15.21, -15.21, -15.1, -14.95, -14.95, -14.4, -14.03, -13.48, -12.65, -11.35, -10.41, -10.4, -8.8, -8.3, -6.82, -4.74, -4.74, -4.43, -3.48, -1.6, 0.0, 0.0, 0.83, -1.4, -6.55, -9.4, -8.8, -8.72, -8.58, -8.79, -10.22, -11.62, -12.47, -11.44, -9.33, -7.89, -8.79, -5.94, -1.26, 0.0, 0.0, 0.0, 0.0, 1.2, 2.68, 2.68, 2.54, 2.84, 4.74, 4.74, 5.15, 4.43, 4.36, 4.36, 4.65, 3.79, 3.47, 3.09, 3.09, 2.8, 3.79, 5.75, 5.34, 5.82, 5.43, 5.3, 4.5, 3.15, 0.0, 0.0, 0.0, 0.0, 0.0, 0.0, -0.7, 0.0, 0.0, 0.74, 1.51, 1.38, 1.59, -2.01, -5.36, -7.56, -7.56, -7.73, -7.46, -7.06, -6.0, -3.39, -0.6, 0.57, -0.0, -0.45, -0.61, -1.47, -1.49, 0.0, -15.21, -15.21, -14.95, -14.95, -14.95, -14.4, -14.03, -13.48, -12.93, -11.72, -11.07, -11.22, -10.16, -10.71, -10.43, -9.49, -9.9, -9.9, -9.21, -8.67, -7.74, -6.8, -4.74, -3.22, -3.2, -3.04, -3.22, -8.0, -10.73, -11.13, -12.07, -12.96, -11.18, -9.83, -9.39, -7.31, -3.2, -0.32, 0.89, 0.89, 0.0, -0.89, -0.63, -0.0, 1.2, 1.34, 1.79, 2.4, 3.45, 4.46, 5.09, 5.09, 4.65, 4.36, 3.55, 3.2, 2.26, 1.55, 1.45, 2.4, 5.05, 7.21, 7.81, 6.07, 5.43, 4.65, 4.37, 3.6, 0.0, -1.55, -1.55, -1.33, -1.39, -1.44, -1.39, -1.42, -2.39, -2.21, -2.06, -0.72, 0.0, 0.69, -1.84, -3.97, -4.3, -4.52, -5.2, -4.37, -3.07, -2.24, -0.6, -0.0, -0.8, -1.79, -2.53, -2.29, -2.18, 0.0, -14.82, -15.21, -14.95, -14.95, -14.95, -14.78, -14.03, -13.48, -13.11, -12.65, -11.72, -11.62, -11.34, -11.08, -10.55, -11.45, -12.3, -12.78, -13.1, -14.11, -14.22, -12.94, -10.6, -6.98, -4.34, -0.63, -0.95, -2.23, -6.4, -10.08, -9.39, -3.58, -1.7, -1.7, -4.02, -6.71, -2.68, -0.0, -0.0, -0.89, -1.34, -1.79, -1.34, 0.0, 1.79, 2.24, 2.68, 3.07, 3.32, 3.45, 4.46, 4.43, 4.36, 3.55, 3.0, 2.26, 1.49, 0.0, 0.0, 2.15, 6.79, 8.14, 7.35, 6.94, 7.2, 7.07, 6.01, 4.03, 0.0, -2.4, -3.91, -4.31, -3.47, -3.47, -2.71, -2.71, -2.89, -3.8, -4.0, -3.69, -2.06, 0.0, 2.06, -1.79, -2.24, -2.4, -2.5, -2.15, -1.79, -1.7, -1.86, -1.7, -1.34, -1.79, -2.53, -2.88, -1.41, 0.0, -14.82, -14.95, -14.95, -14.95, -15.33, -14.68, -14.4, -13.85, -13.48, -12.93, -12.0, -11.72, -11.44, -10.51, -9.3, -9.21, -8.96, -10.21, -11.39, -12.46, -10.5, -6.69, -4.92, -4.02, -1.34, -0.0, -0.0, 1.6, -0.0, -2.21, -2.53, -0.0, 1.49, 1.24, -0.99, -2.86, -2.53, -1.24, -1.58, -1.7, -1.2, -0.8, 0.0, 1.79, 3.82, 3.07, 3.13, 3.13, 2.8, 2.21, 1.88, 1.84, 2.2, 2.29, 2.2, 2.26, 2.31, 1.45, 0.0, 2.68, 7.6, 8.14, 7.35, 7.45, 8.82, 9.33, 8.67, 6.32, 2.2, 0.0, -2.11, -4.14, -4.2, -3.7, -3.15, -3.21, -2.31, -1.55, -2.04, -2.2, -0.66, 0.72, 1.47, 0.53, -0.63, -1.26, -1.58, -1.26, -1.2, -1.79, -1.79, -1.79, -0.89, -1.2, -2.53, -2.0, -0.66, 0.0, -14.82, -14.95, -14.95, -14.95, -14.95, -14.68, -14.13, -13.85, -13.48, -13.3, -12.37, -11.8, -11.72, -11.16, -9.72, -8.53, -7.23, -6.57, -6.51, -6.79, -5.06, -2.2, -0.51, -0.51, -0.53, -0.6, -0.0, 1.24, 2.86, 1.16, -0.66, -0.0, 0.7, 0.61, 0.65, -0.0, -0.61, -1.2, -1.24, -1.24, -0.0, 0.54, 1.58, 2.0, 2.23, 2.23, 2.12, 1.34, 0.95, 0.0, 0.0, 0.0, 0.0, 0.0, 0.0, 0.0, 0.96, 3.17, 0.0, 2.24, 6.21, 7.45, 7.45, 8.49, 8.94, 8.46, 8.48, 8.24, 6.07, 4.46, 1.88, -0.61, -2.07, -2.2, -2.2, -2.26, -1.47, 0.0, 0.0, 0.0, 0.0, 0.0, -0.69, 0.0, 0.0, 0.0, -1.2, -1.24, -1.26, -1.24, -1.0, -0.57, 0.0, -0.8, -1.16, -1.16, 0.0, 0.0, -14.82, -14.95, -14.95, -14.95, -14.95, -14.95, -14.51, -14.13, -13.85, -13.48, -12.93, -12.37, -11.8, -11.44, -10.94, -9.77, -7.6, -5.71, -4.12, -4.1, -3.37, -2.17, -1.1, -1.16, -1.69, -1.54, -1.58, -0.63, 0.51, 0.55, -0.0, -0.0, -0.0, -0.0, -0.0, -0.0, -0.0, -0.57, -0.57, -0.0, -0.0, 1.2, 1.49, 3.35, 3.35, 2.53, 0.6, -0.0, 0.0, 0.0, -0.63, -1.24, -1.74, -1.49, -1.49, -1.49, -0.8, 0.0, 0.0, 1.79, 4.8, 6.17, 7.6, 7.97, 6.66, 5.81, 4.92, 4.73, 5.95, 5.09, 4.0, 1.26, -0.6, -0.71, -1.16, -0.7, 0.0, 0.0, 0.0, 0.0, 0.0, -1.47, -2.06, -2.06, 0.0, 0.0, 0.0, -0.65, -1.24, -0.65, 0.0, 0.0, -0.54, -0.71, -0.54, 0.0, 0.0, 0.0, -14.57, -14.95, -14.95, -14.95, -14.95, -14.95, -14.68, -14.13, -13.58, -13.21, -13.3, -12.45, -12.09, -11.87, -11.52, -10.69, -9.13, -6.97, -5.38, -4.46, -4.44, -4.57, -4.02, -4.02, -3.39, -3.32, -2.8, -2.21, -0.8, -0.0, -0.0, -0.0, -0.0, -0.0, -0.0, -0.0, -0.0, -0.0, -1.26, -0.0, 0.95, 2.21, 1.4, 1.6, 2.53, 3.2, 2.8, 1.2, -0.0, -0.0, -0.45, -1.6, -0.6, 0.0, 0.0, -0.89, -2.68, -2.79, -0.69, 2.23, 2.8, 1.58, 2.23, 2.12, 1.6, 1.6, 1.34, 0.95, 1.0, 2.21, 2.5, 0.6, 0.0, 0.0, 0.57, 1.88, 2.07, 1.49, 0.0, -0.73, -2.2, -3.11, -2.72, -2.04, -2.0, -0.7, 0.0, 0.0, -0.65, -0.65, -0.7, -0.59, -1.2, -0.57, 0.0, 0.0, 0.0, 0.0, -14.57, -14.95, -14.95, -14.95, -14.95, -14.95, -14.68, -14.51, -14.13, -13.58, -13.01, -12.65, -12.45, -11.87, -11.87, -10.94, -9.77, -8.5, -6.97, -5.72, -5.72, -5.23, -5.17, -5.14, -4.51, -3.91, -3.37, -2.8, -2.23, -1.2, -0.63, -0.57, -0.0, -0.0, -0.0, 1.26, 1.26, 1.2, 0.95, 1.26, 0.95, 1.2, 1.58, 2.21, 2.53, 2.53, 2.53, 2.21, 1.9, 1.58, -0.0, 0.0, 0.0, 0.0, 0.0, 0.0, -2.12, -1.49, 0.0, 1.86, 1.34, 2.24, 2.24, 1.79, 0.0, -0.89, -1.34, -0.89, 0.95, 1.6, 0.0, -0.95, -0.95, 0.0, 1.26, 3.83, 6.44, 5.69, 2.2, 0.61, 0.0, -0.65, -1.2, -1.2, -1.49, -2.86, -2.2, -1.41, -1.33, -1.4, -1.33, -1.9, -0.95, 0.0, -0.57, -0.63, -0.45, -0.45, -14.57, -14.95, -14.95, -14.95, -14.95, -14.95, -14.95, -15.06, -14.23, -13.94, -13.01, -13.01, -12.45, -11.87, -11.28, -10.69, -10.06, -8.85, -7.9, -6.69, -5.7, -5.23, -5.17, -4.17, -3.37, -2.23, -2.25, -2.83, -2.89, -2.82, -2.23, -1.7, -1.2, -0.0, 0.6, 1.86, 2.23, 1.86, 1.6, 1.58, 1.58, 0.63, 2.4, 1.2, 2.8, 3.2, 3.2, 2.8, 2.4, 2.68, 2.24, 1.79, 1.79, 1.79, 1.26, 0.0, 0.0, 1.2, 3.13, 2.68, 2.24, 1.58, 1.58, 2.24, 1.79, -0.89, -1.79, -1.79, 0.0, 0.0, -2.24, -3.58, -3.51, -1.7, 0.63, 3.58, 7.47, 8.32, 7.02, 5.09, 3.83, 2.5, 0.95, 0.0, 0.0, -0.63, -3.14, -1.88, -1.58, -1.2, -1.16, -1.2, -1.26, -1.2, -1.16, -0.99, -0.8, -0.8, -14.57, -14.95, -14.95, -14.95, -14.95, -14.95, -14.95, -15.06, -14.23, -13.66, -13.58, -13.01, -12.45, -11.87, -11.28, -10.09, -9.77, -9.46, -7.93, -6.7, -5.69, -5.2, -4.51, -2.84, -1.74, -1.11, -1.66, -2.21, -3.42, -3.97, -3.83, -3.49, -2.5, -0.89, 0.63, 1.6, 1.86, 1.26, 0.95, 0.45, 0.0, 0.0, 0.89, 0.89, 2.68, 2.68, 2.68, 2.68, 2.68, 2.24, 2.68, 2.68, 2.68, 3.13, 2.68, 1.9, 2.8, 3.39, 2.8, 1.58, 1.58, 0.0, 0.0, 3.2, 3.48, 0.6, -0.89, -2.6, -3.32, -2.8, -3.58, -3.82, -3.07, -1.88, -0.0, 2.91, 3.82, 5.72, 6.32, 5.37, 4.12, 3.14, 2.53, 0.8, 0.45, -0.45, -1.7, -2.12, -1.2, 0.0, 0.65, 0.61, 0.0, -1.16, -1.33, -0.53, -0.57, -0.57, -14.95, -14.95, -14.95, -14.95, -14.95, -14.95, -14.95, -14.68, -14.68, -14.23, -13.3, -13.01, -12.45, -11.87, -11.44, -10.52, -10.06, -9.46, -7.93, -6.33, -5.4, -5.8, -5.83, -3.95, -2.97, -3.21, -2.77, -3.95, -4.71, -5.32, -5.72, -5.1, -4.11, -2.21, 0.0, 1.34, 1.79, 1.2, 0.63, 0.0, 0.0, 0.0, 0.0, 1.79, 2.68, 2.68, 2.68, 2.68, 2.24, 2.68, 2.68, 3.13, 3.58, 3.58, 4.02, 3.82, 2.8, 2.21, 1.2, 0.0, 0.0, 0.0, 0.0, 1.58, 2.84, 1.49, -0.0, -1.86, -3.79, -1.99, -0.79, 0.0, 0.0, 0.0, 0.0, 0.0, 0.0, 0.0, 0.67, 1.47, 1.27, 1.27, 0.66, 0.0, 0.0, -0.8, -1.86, -1.58, -0.89, 0.0, 1.24, 1.27, 0.63, 0.0, -0.59, 0.0, 0.0, 0.0, -14.57, -14.95, -14.95, -14.95, -14.57, -14.57, -14.95, -14.95, -14.68, -14.23, -13.66, -13.01, -12.09, -11.8, -11.8, -10.65, -10.3, -9.66, -8.3, -6.88, -6.77, -7.1, -7.55, -6.87, -7.08, -6.97, -6.57, -6.34, -6.35, -6.34, -6.04, -5.71, -4.45, -2.86, -0.54, 0.6, 1.2, 1.34, 0.89, 0.89, 0.89, 0.89, 0.89, 1.79, 2.24, 2.24, 2.24, 2.24, 2.24, 2.68, 3.13, 3.58, 4.02, 4.02, 2.24, 2.6, 4.09, 1.26, 0.0, 0.0, 0.0, 0.0, 0.0, 2.84, 1.49, 1.24, 0.6, 0.0, 0.0, 1.55, 3.11, 4.46, 3.93, 1.54, -1.51, -4.46, -6.07, -6.08, -2.2, -0.57, 0.0, 0.63, 0.7, 0.0, -0.61, -1.61, -1.88, 0.0, 0.0, 0.0, 0.0, 0.0, 0.0, 0.0, 0.0, 0.0, 0.0, 0.0, -14.57, -14.57, -14.57, -14.57, -14.57, -14.57, -14.4, -14.4, -14.51, -14.51, -13.66, -13.01, -12.09, -11.8, -11.52, -11.28, -10.3, -9.94, -9.86, -9.62, -9.4, -9.5, -9.22, -8.87, -9.5, -8.87, -7.95, -7.3, -6.92, -6.23, -5.59, -5.01, -4.11, -2.86, -1.2, 0.0, 0.6, 0.6, 0.95, 0.95, 0.95, 0.89, 1.34, 1.79, 2.24, 2.24, 2.24, 1.79, 2.24, 2.68, 3.58, 4.02, 4.02, 4.02, 4.47, 2.6, 2.8, 2.8, 0.0, -1.34, 0.0, -0.0, 1.4, 1.13, -0.0, 0.8, 0.6, 1.34, 2.86, 5.09, 6.95, 6.9, 3.95, 0.0, -3.04, -8.16, -11.85, -10.23, -6.7, -3.16, -1.27, 0.0, 1.94, 2.66, 2.07, 0.61, 0.65, 1.84, 1.76, 0.59, -1.16, -1.8, -0.76, -0.57, -0.65, 0.0, 0.0, 0.0, -14.82, -14.57, -14.4, -14.4, -14.4, -14.4, -14.4, -14.4, -14.13, -14.13, -13.94, -13.01, -12.45, -11.87, -11.52, -11.28, -10.65, -10.23, -10.65, -11.28, -10.43, -9.82, -9.5, -9.5, -9.21, -8.86, -7.59, -6.34, -5.1, -4.43, -4.07, -3.43, -2.84, -2.21, -1.2, 0.0, 0.0, 0.71, 0.71, 0.71, 0.57, 0.6, 1.2, 1.79, 2.24, 2.24, 1.79, 1.79, 2.24, 3.13, 3.58, 3.58, 3.58, 4.02, 4.02, 4.47, 3.95, 4.24, 3.39, -0.0, -0.0, 0.54, 0.71, 0.8, -0.0, 0.6, 1.2, 1.7, 2.24, 4.02, 6.0, 6.95, 3.55, 0.65, -6.4, -11.57, -13.86, -13.18, -10.38, -6.85, -3.07, 0.0, 2.51, 4.12, 5.09, 4.12, 3.49, 3.16, 2.44, 1.19, -1.27, -2.23, -1.76, -1.13, -0.57, 0.0, 0.0, 0.0, -14.82, -14.82, -14.67, -14.4, -14.4, -14.4, -14.4, -14.03, -14.4, -14.13, -13.58, -13.01, -12.45, -11.87, -11.52, -11.23, -10.65, -10.3, -10.94, -11.03, -10.13, -8.86, -8.23, -7.96, -8.23, -8.22, -6.92, -5.67, -4.0, -2.96, -2.18, -2.22, -2.23, -1.84, -1.16, -0.53, 0.0, 0.61, 0.51, 0.61, 0.61, 0.54, 0.99, 1.26, 2.17, 2.24, 2.24, 2.24, 2.68, 3.13, 3.58, 3.58, 3.58, 4.02, 4.02, 4.47, 3.13, 3.58, 2.8, 1.34, 0.71, 0.71, 0.8, 0.95, 1.58, 2.23, 2.12, 1.79, 1.79, 1.34, 0.89, 0.95, 0.0, -0.0, -3.58, -8.38, -12.22, -12.66, -11.8, -8.24, -3.98, -1.26, 0.57, 2.21, 2.84, 3.79, 3.43, 2.73, 2.11, 2.26, 0.0, -1.88, -2.53, -1.61, -0.6, -0.57, -0.61, -0.61, -14.29, -14.29, -14.29, -14.03, -14.03, -14.03, -14.03, -14.03, -13.85, -13.85, -13.58, -13.01, -13.01, -12.09, -11.52, -11.23, -10.65, -10.36, -10.69, -10.75, -9.84, -8.85, -7.57, -6.92, -6.92, -6.92, -6.5, -5.2, -4.57, -3.49, -2.86, -2.26, -1.8, -1.7, -1.19, -0.55, 0.0, 0.0, 0.55, 0.55, 0.57, 0.51, 0.65, 1.24, 1.86, 2.12, 2.68, 2.68, 2.68, 3.13, 3.58, 3.58, 4.02, 4.02, 4.02, 4.34, 2.6, 2.17, 2.6, 2.12, 0.63, -0.0, -0.0, 1.6, 2.8, 3.95, 3.13, 4.47, 1.34, 0.0, -0.89, -2.15, -1.86, 0.0, 0.0, -4.47, -7.52, -8.79, -10.0, -7.06, -3.82, -2.0, -1.26, 0.0, 0.0, 0.0, 0.66, 0.63, 0.63, 2.11, 1.35, 0.0, -2.17, -1.7, -1.2, -1.24, -0.54, -0.54, -14.29, -14.29, -14.29, -14.29, -14.03, -14.03, -13.85, -13.48, -13.48, -13.48, -13.3, -13.01, -13.01, -12.45, -11.52, -11.23, -10.65, -10.69, -10.4, -10.43, -10.13, -9.22, -8.2, -7.13, -6.46, -6.25, -5.83, -5.62, -5.2, -4.05, -3.42, -2.8, -2.33, -1.71, -1.18, -0.57, 0.0, 0.0, 0.0, 0.59, 0.54, 0.57, 0.59, 1.16, 1.61, 1.9, 1.58, 1.58, 1.86, 2.6, 3.13, 3.58, 3.58, 4.02, 4.02, 3.82, 3.35, 1.86, 1.34, 0.95, 0.0, 0.0, -0.0, 2.12, 3.95, 3.51, 3.13, 3.13, 2.24, -0.45, -2.5, -3.9, -2.09, 0.0, 0.72, 1.27, 0.53, -1.9, -6.7, -4.46, -3.16, -3.14, -2.53, -2.21, -1.88, -1.84, -1.13, -1.27, 0.0, 2.79, 5.46, 3.43, 0.0, -2.17, -1.79, -1.26, 0.0, 0.0, -14.29, -14.29, -14.29, -13.9, -13.75, -13.48, -13.48, -13.48, -12.93, -12.93, -12.93, -12.93, -12.65, -12.45, -11.87, -10.94, -10.69, -10.69, -10.4, -10.12, -10.13, -9.5, -8.85, -7.53, -6.88, -6.46, -5.8, -5.62, -5.2, -4.54, -3.89, -3.42, -2.93, -2.3, -1.78, -1.16, -0.55, 0.0, 0.0, 0.0, 0.0, 0.54, 0.57, 1.13, 1.16, 1.88, 1.61, 1.61, 1.9, 2.15, 3.07, 3.13, 3.58, 3.58, 3.82, 3.82, 3.35, 2.84, 1.58, 0.0, 0.0, 0.0, 0.71, 2.12, 2.68, 2.68, 2.68, 2.68, 1.34, 0.0, -1.86, -2.76, -1.52, 0.0, 3.11, 6.21, 5.0, 0.0, -3.72, -4.46, -5.09, -4.74, -3.79, -2.84, -2.53, -1.84, -1.33, -0.53, 1.26, 3.58, 3.97, 6.95, 2.44, -0.63, -1.2, 0.0, 0.95, 0.95, -13.9, -13.9, -13.75, -13.75, -13.75, -13.75, -13.11, -12.93, -12.93, -12.56, -12.37, -12.37, -12.37, -12.09, -11.87, -11.28, -10.69, -10.69, -10.12, -10.12, -9.5, -9.21, -8.86, -8.2, -7.53, -6.88, -6.46, -5.83, -5.17, -4.72, -4.05, -3.91, -3.45, -2.8, -2.19, -1.69, -1.14, -0.58, 0.0, 0.0, 0.0, 0.0, 0.0, 0.57, 1.13, 1.33, 1.16, 1.16, 1.88, 1.9, 2.4, 3.07, 3.13, 3.07, 2.12, 1.86, 2.84, 2.23, 0.71, 0.6, 0.0, 0.65, 2.23, 3.22, 4.77, 2.24, 2.24, 0.89, 0.45, -0.63, -1.86, -2.84, -3.2, -0.77, 2.97, 6.09, 5.51, 1.19, -3.07, -5.64, -6.25, -7.06, -5.37, -3.78, -2.79, -1.88, 0.0, 1.49, 3.07, 3.39, 2.68, 2.53, 5.52, 2.11, 1.2, 1.9, 2.53, 2.53, -13.75, -13.75, -13.75, -13.36, -13.36, -13.2, -13.2, -13.2, -12.82, -12.65, -12.27, -12.0, -12.0, -11.87, -11.87, -10.99, -10.99, -10.4, -10.12, -9.8, -9.21, -8.87, -8.59, -8.2, -7.53, -7.1, -6.43, -5.77, -5.14, -4.68, -4.05, -3.42, -2.93, -2.42, -1.67, -1.69, -1.14, -0.54, -0.58, 0.0, 0.0, 0.0, 0.0, 0.61, 1.23, 1.11, 1.27, 1.16, 1.16, 1.61, 1.9, 2.4, 2.6, 2.68, 2.49, 1.26, 1.6, 1.27, 0.65, 0.54, 1.2, 1.26, 2.21, 2.53, 1.86, 3.82, 1.7, 0.0, -0.63, -1.2, -1.24, -2.15, -3.72, -2.73, -1.13, 0.0, 0.0, 0.59, -2.17, -4.87, -6.28, -7.07, -5.95, -4.74, -2.79, -0.63, 2.6, 3.07, 3.32, 2.4, 1.7, 0.99, 3.6, 4.96, 4.14, 4.07, 4.07, 4.07, -13.36, -13.36, -13.36, -13.2, -13.2, -13.2, -12.82, -12.82, -12.65, -12.27, -12.09, -11.72, -11.8, -11.8, -11.87, -11.58, -10.99, -10.4, -10.12, -9.5, -9.5, -8.59, -8.51, -8.22, -7.55, -7.13, -6.46, -6.0, -5.14, -4.68, -4.05, -3.57, -2.93, -2.28, -1.75, -1.78, -1.14, -1.14, -0.58, -0.58, -0.56, 0.0, 0.0, 0.0, 0.65, 1.73, 1.23, 0.51, 0.65, 1.2, 1.9, 1.86, 2.12, 1.79, 2.12, 1.9, 1.2, 1.13, 0.65, 1.2, 1.49, 2.68, 1.9, 1.26, 1.7, 2.6, 2.6, 0.95, -0.89, -1.34, -1.26, -1.49, -2.35, -4.65, -8.06, -7.64, -3.69, -0.57, -1.0, -3.07, -3.6, -6.03, -5.65, -3.84, -0.61, 2.17, 3.07, 1.88, 0.54, 0.8, 0.95, 1.34, 1.88, 4.07, 5.13, 5.35, 5.0, 5.0, -13.47, -13.47, -12.82, -12.82, -12.82, -12.82, -12.65, -12.27, -12.27, -12.27, -12.09, -11.72, -11.72, -11.44, -11.52, -11.87, -11.33, -10.72, -10.12, -9.5, -8.87, -8.59, -8.23, -7.59, -7.32, -6.92, -6.25, -5.8, -5.14, -4.68, -4.02, -3.39, -2.9, -2.28, -2.17, -1.75, -1.67, -1.14, -1.14, -0.58, -0.59, 0.0, 0.0, 0.0, 0.57, 0.76, 0.7, 0.59, 0.54, 1.58, 1.86, 1.49, 1.6, 1.34, 1.2, 1.86, 1.9, 1.88, 1.24, 1.24, 1.26, 1.79, 0.63, 0.0, 1.7, 2.24, 3.13, 2.54, 0.0, -0.89, -1.7, -1.4, 0.0, -1.54, -6.97, -9.17, -6.79, -3.79, -1.23, -1.13, -2.79, -4.94, -3.53, -0.57, 2.22, 3.16, 2.53, 0.89, -0.57, -0.0, 0.57, 1.34, 2.23, 3.64, 4.22, 4.67, 5.0, 5.0, -13.09, -13.09, -12.82, -12.82, -12.82, -12.27, -12.27, -12.27, -12.09, -11.72, -11.72, -11.72, -11.72, -11.23, -11.23, -11.28, -10.99, -10.72, -10.12, -9.5, -8.87, -8.59, -7.96, -7.59, -7.19, -6.68, -6.27, -5.62, -4.51, -4.02, -4.02, -3.37, -2.87, -2.9, -2.39, -2.28, -1.75, -1.67, -1.2, -1.14, -0.55, -0.61, 0.0, 0.0, 0.0, 0.0, 0.0, 0.57, 0.53, 1.24, 1.86, 1.26, 1.2, 0.89, 0.89, 1.7, 2.4, 2.4, 2.5, 1.58, 1.26, 0.63, 0.0, -0.0, 1.26, 1.86, 2.12, 1.79, 0.8, 0.0, -1.58, -1.26, 0.0, 1.52, 0.0, -5.29, -7.9, -6.71, -4.6, -2.99, -2.44, -2.79, -0.54, 1.98, 3.84, 3.21, 2.77, 0.66, 0.0, -0.0, 1.26, 1.7, 2.0, 2.53, 3.64, 4.02, 4.02, 4.02, -13.09, -13.09, -12.45, -12.27, -12.27, -12.27, -12.27, -11.72, -11.72, -11.72, -11.35, -11.16, -11.16, -11.16, -11.23, -10.94, -11.28, -10.72, -10.4, -9.8, -9.21, -8.59, -7.96, -7.59, -6.94, -6.53, -6.29, -5.67, -4.8, -3.91, -4.05, -4.05, -3.39, -3.42, -2.9, -2.77, -2.28, -2.28, -1.75, -1.69, -1.16, -0.56, -0.53, 0.0, 0.0, 0.0, 0.0, 0.55, 0.59, 1.16, 1.2, 1.24, 0.8, 0.0, 0.0, 1.2, 2.17, 2.63, 3.07, 2.91, 1.26, 0.6, 0.63, 0.6, 1.26, 1.86, 1.6, 0.0, 0.0, 0.0, 0.0, 0.0, -0.63, 0.0, 1.51, -0.78, -5.04, -5.06, -3.64, -2.9, -1.44, 0.0, 1.16, 2.82, 2.96, 2.23, 2.21, 1.71, 0.0, 0.95, 1.7, 1.7, 1.7, 2.21, 3.43, 3.64, 4.07, 4.07, -12.7, -12.7, -12.54, -12.27, -12.27, -11.9, -11.72, -11.72, -11.35, -11.16, -11.16, -11.16, -11.16, -11.16, -10.65, -10.65, -10.69, -10.09, -9.8, -9.8, -9.5, -8.59, -8.23, -7.59, -6.94, -6.29, -6.31, -5.67, -5.26, -4.6, -3.94, -4.12, -3.91, -3.42, -3.42, -2.9, -2.93, -2.28, -2.3, -1.78, -1.16, -1.18, -0.57, -0.58, 0.0, 0.0, 0.0, 0.0, 0.55, 0.57, 0.61, 0.65, 0.71, 0.0, 0.0, 1.34, 2.24, 2.63, 3.07, 3.07, 3.07, 1.2, 2.24, 1.34, 1.7, 2.12, 1.7, 0.63, 0.0, 0.0, 1.24, 1.2, -0.63, -3.07, -2.37, -0.74, -1.27, -0.89, 0.0, 0.0, 1.36, 2.06, 2.0, 1.36, 1.12, 0.56, 1.11, 1.11, 0.76, 1.26, 2.12, 2.12, 1.79, 1.86, 1.84, 3.22, 3.38, 3.38, -12.54, -12.54, -12.54, -12.16, -11.72, -11.72, -11.72, -11.35, -11.16, -11.16, -10.8, -10.8, -10.59, -10.59, -10.3, -10.3, -10.06, -9.77, -9.8, -9.5, -9.5, -8.87, -8.23, -7.59, -7.19, -6.7, -6.31, -5.89, -5.89, -5.02, -4.6, -4.16, -3.94, -3.45, -3.45, -3.45, -3.45, -2.8, -2.83, -2.19, -1.69, -1.09, -1.1, -0.57, -0.58, 0.0, 0.0, 0.0, 0.0, 0.0, 0.0, 0.0, 0.0, 0.0, 0.0, 1.2, 1.79, 2.24, 2.68, 3.13, 2.97, 3.13, 2.68, 2.68, 1.79, 1.7, 1.26, 1.26, 0.63, 0.45, 1.7, 1.6, 0.0, -4.71, -6.31, -3.01, 0.0, 2.4, 3.97, 3.37, 2.1, 0.71, 0.0, 0.0, 0.0, 0.0, 0.0, 0.56, 1.4, 1.88, 2.68, 2.6, 2.24, 1.7, 1.9, 2.0, 2.66, 2.66, -12.16, -12.16, -12.16, -11.99, -11.72, -11.35, -11.35, -11.16, -11.16, -10.8, -10.8, -10.59, -10.59, -10.23, -10.01, -9.72, -9.72, -9.77, -9.48, -9.19, -9.19, -8.59, -8.59, -8.23, -7.59, -6.94, -6.29, -5.89, -5.89, -5.23, -4.8, -3.94, -4.16, -3.97, -3.97, -3.49, -3.49, -3.49, -2.83, -2.33, -2.21, -1.71, -1.18, -1.2, -0.57, -0.58, -0.53, 0.0, 0.0, 0.0, 0.0, 0.0, 0.0, 0.0, 0.0, 0.8, 1.7, 2.17, 2.24, 3.13, 3.07, 2.97, 2.68, 2.68, 2.68, 2.24, 0.95, 0.99, 1.26, 1.26, 1.79, 1.6, 0.0, -2.31, -3.87, -1.57, 2.33, 6.2, 5.45, 3.1, 0.0, -1.41, -1.98, -1.97, -0.67, 0.0, 0.55, 0.72, 1.35, 2.0, 3.07, 3.07, 2.24, 1.79, 1.26, 1.2, 1.27, 1.27, -12.16, -12.16, -11.99, -11.62, -11.62, -11.44, -11.16, -10.8, -10.8, -10.59, -10.59, -10.23, -10.23, -10.01, -10.01, -10.01, -9.46, -9.46, -9.48, -9.48, -9.19, -8.87, -8.59, -8.23, -7.59, -6.94, -6.29, -5.89, -5.67, -5.23, -5.02, -4.6, -4.4, -4.16, -3.97, -3.97, -3.32, -3.52, -2.86, -2.89, -2.23, -1.61, -1.73, -1.1, -0.57, -0.57, -0.58, -0.53, -0.54, 0.0, 0.0, 0.0, 0.0, 0.0, 0.0, 0.71, 1.58, 1.86, 2.12, 2.68, 3.13, 3.07, 2.4, 1.34, 0.89, 1.79, 0.95, 1.58, 1.86, 1.86, 1.6, 1.79, 1.98, 1.5, 0.0, 0.0, 1.52, 3.14, 3.13, 1.39, 0.0, -2.06, -2.66, -1.13, 0.0, 0.61, 0.59, 1.27, 1.8, 2.48, 2.51, 2.79, 1.86, 1.7, 1.26, 0.99, 1.33, 1.33, -11.99, -11.99, -11.62, -11.62, -11.44, -11.07, -11.07, -11.07, -10.59, -10.59, -10.23, -10.23, -10.01, -10.01, -10.01, -9.66, -9.13, -9.46, -9.17, -9.48, -9.19, -8.87, -8.87, -8.23, -7.96, -7.59, -6.94, -6.29, -5.89, -5.23, -5.02, -5.04, -4.6, -4.63, -3.97, -4.0, -3.52, -3.35, -2.89, -2.23, -2.26, -1.73, -1.76, -0.76, -0.57, -1.12, -1.12, -1.14, -0.59, -0.54, -0.55, -0.63, -0.57, 0.0, 0.0, 0.65, 1.24, 1.58, 2.12, 2.68, 3.13, 3.13, 2.68, 0.89, 0.89, 1.79, 1.2, 1.86, 2.23, 2.12, 1.7, 1.79, 2.23, 3.45, 2.31, 0.0, -2.26, -2.39, -2.33, -2.09, -1.4, -1.36, -0.51, 0.0, 1.2, 1.9, 1.61, 1.8, 1.8, 2.0, 2.0, 2.51, 1.88, 1.58, 1.26, 0.99, 0.71, 0.65, -11.62, -11.62, -11.62, -11.44, -11.07, -11.07, -11.07, -10.87, -10.23, -10.23, -10.23, -10.01, -10.01, -9.66, -9.66, -9.66, -9.42, -9.13, -9.46, -9.17, -9.17, -8.87, -8.87, -8.58, -8.24, -7.59, -6.94, -6.53, -6.29, -5.89, -5.23, -5.26, -4.6, -4.63, -3.97, -4.0, -3.35, -3.37, -2.73, -2.26, -2.26, -1.76, -1.65, -0.76, -0.58, -1.12, -1.12, -1.67, -1.16, -1.16, -1.19, -0.55, -0.57, 0.0, 0.0, 0.0, 0.54, 1.24, 1.49, 2.24, 2.68, 3.13, 3.13, 1.34, 0.89, 2.24, 2.24, 1.7, 2.12, 2.12, 1.7, 0.95, 1.2, 2.12, 3.87, 3.19, -0.76, -5.86, -7.11, -6.32, -3.41, -0.67, 0.66, 1.88, 1.9, 1.88, 2.07, 1.8, 2.0, 1.23, 1.23, 1.27, 1.13, 1.2, 0.71, 0.57, 0.71, 0.71, -11.62, -11.62, -11.07, -11.07, -11.07, -11.07, -10.87, -10.51, -10.23, -10.23, -10.01, -10.01, -9.66, -9.66, -9.42, -9.42, -9.42, -9.42, -9.13, -8.85, -8.87, -8.87, -8.58, -8.58, -8.24, -7.96, -7.33, -6.94, -6.29, -5.89, -5.67, -5.26, -4.6, -4.63, -3.97, -4.0, -3.35, -3.37, -2.92, -2.26, -2.44, -2.29, -2.14, -1.67, -1.47, -1.12, -1.65, -1.84, -1.7, -1.19, -1.19, -1.08, -0.57, -0.57, 0.0, 0.0, 0.65, 0.71, 1.26, 1.79, 2.68, 3.13, 2.68, 2.68, 2.68, 2.68, 1.34, 1.7, 1.86, 2.54, 1.79, 0.45, 0.0, 0.0, 4.4, 7.01, 4.6, -0.67, -4.6, -5.78, -2.66, 0.0, 2.07, 2.66, 2.66, 1.94, 1.41, 1.3, 1.35, 0.69, 0.61, 0.63, 0.57, 0.66, 0.0, 0.0, 0.0, 0.71, -11.24, -11.24, -11.07, -11.07, -11.07, -10.87, -10.51, -10.51, -10.23, -10.23, -10.01, -10.01, -9.66, -9.66, -9.42, -9.42, -9.42, -9.42, -8.85, -8.85, -8.56, -8.56, -8.87, -8.87, -7.96, -7.96, -7.6, -7.22, -6.7, -6.29, -5.89, -5.02, -4.6, -4.63, -3.97, -4.0, -3.56, -3.37, -2.92, -2.75, -2.26, -2.29, -2.14, -2.32, -2.32, -1.6, -1.67, -1.7, -1.73, -1.73, -1.08, -1.08, -1.11, -0.57, 0.0, 0.0, 0.0, 0.0, 0.8, 1.6, 2.24, 2.68, 3.13, 3.13, 3.13, 3.13, 1.34, 3.58, 2.12, 2.54, 1.7, 0.0, -0.89, -0.89, 0.71, 4.44, 6.2, 3.61, 0.0, -1.2, 0.0, 1.9, 3.32, 3.61, 2.83, 1.4, 0.0, 0.0, 0.0, 0.0, 0.0, 0.0, 0.0, 0.0, 0.0, 0.0, 0.0, 0.0, -11.07, -11.07, -11.07, -11.07, -10.51, -10.51, -10.51, -10.51, -10.23, -10.01, -10.01, -9.66, -9.66, -9.66, -9.42, -9.42, -9.42, -9.08, -9.08, -8.53, -8.85, -8.56, -8.24, -8.24, -8.24, -8.24, -7.61, -7.33, -6.96, -6.56, -5.89, -5.23, -5.04, -4.63, -3.97, -4.0, -3.56, -3.37, -2.73, -2.92, -2.75, -2.44, -2.29, -2.29, -3.0, -2.32, -1.67, -1.7, -1.73, -1.08, -1.23, -1.23, -1.11, -0.57, -0.59, 0.0, 0.0, 0.0, 0.0, 1.2, 2.24, 2.68, 2.68, 2.68, 3.13, 3.13, 3.13, 3.58, 2.12, 2.4, 1.7, -0.0, -1.34, -1.34, -1.6, -0.76, 0.73, 2.34, 3.16, 2.9, 3.76, 5.59, 5.68, 4.7, 3.47, 1.52, 0.0, -0.66, -1.35, -1.52, -1.36, -1.41, -1.35, -1.47, -1.55, -1.49, -1.49, -1.49, -11.34, -11.34, -11.07, -10.7, -10.51, -10.51, -10.51, -10.23, -10.01, -10.01, -9.66, -9.66, -9.66, -9.42, -9.42, -9.42, -9.08, -9.08, -8.82, -8.53, -8.53, -8.24, -7.95, -7.95, -7.95, -7.95, -7.61, -7.61, -7.24, -6.31, -6.31, -5.67, -5.26, -4.6, -4.42, -4.0, -3.56, -3.37, -3.37, -2.92, -2.92, -2.75, -2.96, -2.77, -2.49, -2.32, -1.8, -1.84, -1.7, -1.19, -1.23, -1.11, -1.11, -0.59, -0.59, -0.51, 0.0, 0.0, 0.0, 0.63, 1.79, 2.68, 2.68, 2.68, 2.68, 2.68, 2.68, 3.58, 2.12, 2.12, 1.7, -0.0, -0.89, -1.79, -2.4, -2.53, -1.52, 0.76, 3.78, 7.23, 9.66, 10.08, 8.43, 5.64, 4.08, 2.23, 0.63, -0.66, -2.0, -2.88, -1.94, -2.2, -2.2, -2.88, -2.4, -2.3, -2.3, -2.3, -10.96, -10.96, -10.7, -10.51, -10.51, -10.51, -10.51, -10.01, -10.01, -10.01, -9.66, -9.66, -9.66, -9.42, -9.42, -9.08, -9.08, -9.08, -8.82, -8.82, -8.53, -8.24, -8.24, -7.95, -7.61, -7.61, -7.61, -7.33, -6.97, -6.97, -6.31, -5.67, -5.02, -5.04, -4.63, -4.2, -4.0, -3.56, -3.37, -3.6, -2.92, -2.92, -2.75, -2.77, -3.0, -2.32, -2.32, -1.67, -1.84, -1.7, -1.19, -1.23, -1.11, -0.59, -0.59, -0.61, -0.61, -0.61, -0.71, 0.63, 2.24, 2.24, 2.68, 2.24, 2.68, 2.24, 2.24, 1.34, 2.12, 1.86, 1.6, 0.45, -0.45, -1.6, -1.58, -1.2, 0.0, 0.77, 3.11, 7.58, 11.08, 11.65, 8.78, 5.9, 4.15, 3.27, 2.18, 0.0, -2.0, -2.51, -3.76, -2.53, -3.16, -3.07, -2.84, -2.53, -2.53, -2.53, -10.96, -10.96, -10.51, -10.51, -10.51, -10.51, -10.3, -10.01, -10.01, -9.66, -9.66, -9.66, -9.66, -9.42, -9.42, -9.08, -9.08, -9.08, -8.82, -8.82, -8.82, -8.22, -7.93, -7.61, -7.61, -7.33, -7.33, -7.33, -6.97, -6.71, -6.33, -5.92, -5.69, -5.26, -4.6, -4.63, -4.0, -3.8, -3.56, -3.37, -3.4, -3.4, -2.75, -2.96, -2.77, -2.8, -2.32, -2.16, -2.36, -1.7, -1.55, -1.08, -1.11, -1.13, -0.59, -0.51, -0.51, -1.16, -0.54, 0.95, 2.24, 2.24, 2.68, 2.6, 2.17, 2.24, 2.68, 1.34, 1.7, 1.86, 1.58, 0.32, 0.0, -0.63, 0.0, 0.0, 0.0, 0.78, 2.9, 6.42, 9.4, 10.21, 7.69, 5.72, 4.92, 3.44, 1.36, 0.0, -1.33, -3.48, -3.72, -2.4, -2.8, -2.8, -2.8, -2.8, -2.8, -2.8, -10.96, -10.96, -10.79, -10.51, -10.51, -10.3, -10.3, -9.66, -9.66, -9.66, -9.66, -9.66, -9.42, -9.42, -9.08, -9.08, -9.08, -9.08, -8.82, -8.82, -8.5, -8.22, -8.22, -7.61, -7.61, -7.61, -7.61, -7.26, -6.98, -6.98, -6.61, -6.08, -5.69, -5.26, -5.04, -4.63, -3.97, -4.0, -4.03, -3.56, -3.37, -3.4, -3.4, -2.96, -2.77, -3.0, -2.8, -2.32, -2.36, -2.36, -1.7, -1.73, -1.08, -1.11, -0.59, -0.59, -1.13, -1.13, -0.65, 0.6, 1.79, 2.24, 2.17, 2.4, 2.4, 2.68, 2.68, 3.13, 3.13, 1.2, 1.58, 0.63, 0.0, 0.0, 0.0, 0.0, 0.87, 1.6, 3.11, 4.74, 6.64, 7.01, 7.15, 7.62, 6.29, 3.4, 0.0, 0.0, -0.8, -1.79, -1.79, -2.68, -3.13, -3.13, -3.13, -3.07, -3.07, -3.07, -10.96, -10.96, -10.79, -10.15, -10.15, -9.94, -9.94, -9.66, -9.66, -9.66, -9.66, -9.66, -9.42, -9.42, -9.08, -9.08, -9.08, -9.08, -8.82, -8.82, -8.82, -8.22, -7.9, -7.6, -7.32, -6.98, -6.98, -6.98, -6.98, -6.98, -6.34, -6.34, -6.34, -5.95, -5.29, -4.63, -4.63, -4.2, -4.0, -4.03, -3.56, -3.37, -3.4, -3.42, -2.96, -3.0, -2.8, -2.8, -2.36, -2.36, -2.18, -1.88, -1.73, -1.23, -1.13, -1.13, -1.13, -1.13, -0.53, 0.57, 1.6, 1.7, 2.17, 2.4, 2.91, 3.58, 3.58, 3.58, 3.58, 1.79, 1.79, 1.2, 1.34, 0.0, 0.0, 0.0, 0.0, 1.8, 4.01, 4.46, 4.74, 6.2, 8.61, 9.76, 6.87, 2.48, 0.0, -1.26, -0.57, -1.26, -1.86, -3.07, -3.53, -3.51, -3.58, -3.58, -3.58, -3.58, -10.79, -10.79, -10.79, -10.15, -10.15, -9.94, -9.94, -9.66, -9.66, -9.66, -9.66, -9.42, -9.42, -9.42, -9.08, -9.08, -9.08, -8.82, -8.82, -8.82, -8.5, -8.22, -7.9, -7.9, -7.6, -6.98, -6.98, -6.98, -6.7, -6.34, -6.34, -6.08, -6.08, -5.7, -5.7, -5.06, -4.63, -4.42, -4.2, -4.0, -3.35, -3.37, -3.6, -3.4, -3.42, -2.77, -3.0, -2.8, -3.04, -2.36, -2.18, -2.4, -1.73, -1.73, -1.11, -1.11, -1.27, -1.13, 0.0, 0.0, 0.6, 1.6, 2.12, 2.4, 2.91, 1.79, 1.79, 2.24, 2.24, 2.24, 1.79, 1.34, 0.95, 0.0, 0.0, 0.0, 0.95, 2.4, 3.6, 4.22, 4.12, 5.37, 8.3, 8.53, 5.52, 1.84, -2.0, -2.66, -1.33, -0.71, -1.86, -3.32, -3.82, -4.24, -4.24, -4.24, -4.24, -4.24, -10.79, -10.79, -10.41, -10.15, -10.15, -9.94, -9.94, -9.66, -9.66, -9.66, -9.42, -9.42, -9.42, -9.42, -9.08, -9.08, -9.08, -8.82, -8.82, -8.82, -8.5, -7.9, -8.19, -8.19, -7.6, -7.6, -6.98, -6.7, -6.34, -6.34, -6.08, -5.98, -5.98, -5.72, -5.72, -5.32, -5.32, -4.66, -4.66, -4.0, -4.0, -3.56, -3.37, -3.4, -3.42, -3.42, -3.0, -2.8, -2.8, -2.36, -2.36, -2.4, -2.2, -1.94, -1.76, -1.76, -1.11, -1.27, -0.51, 0.0, 0.0, 1.2, 1.7, 2.17, 2.6, 1.79, 1.79, 1.7, 2.24, 2.24, 1.79, 0.89, -0.0, -0.0, -0.0, -0.0, 0.0, 1.79, 1.34, 2.6, 3.83, 4.46, 5.46, 5.49, 3.78, -1.7, -3.43, -4.22, -3.47, -1.88, -1.86, -2.8, -3.45, -3.83, -4.0, -4.4, -4.4, -4.4, -10.79, -10.41, -10.41, -10.41, -10.15, -9.94, -9.94, -9.94, -9.66, -9.42, -9.42, -9.42, -9.42, -9.08, -9.08, -9.08, -9.08, -8.82, -8.82, -8.5, -8.5, -8.22, -8.19, -8.19, -8.19, -7.6, -6.98, -6.98, -6.63, -6.35, -6.35, -5.98, -5.72, -5.72, -5.72, -5.08, -5.08, -4.66, -4.66, -4.66, -4.0, -4.0, -3.56, -3.37, -3.4, -3.42, -3.21, -3.0, -2.8, -2.82, -2.82, -2.4, -2.4, -2.2, -1.94, -1.76, -1.76, -1.11, -0.59, -0.61, 0.0, 1.26, 1.7, 2.12, 2.12, 2.24, 1.6, 1.26, 1.2, 1.34, 1.34, 0.89, 0.45, 0.63, -0.0, -0.0, -0.0, -0.0, 1.2, 2.24, 2.8, 3.83, 3.84, 3.0, 0.0, -2.68, -3.14, -4.07, -5.59, -5.37, -3.07, -2.8, -2.5, -2.86, -3.49, -3.49, -3.49, -3.49, -10.41, -10.41, -10.41, -10.41, -10.15, -9.94, -9.94, -9.94, -9.42, -9.42, -9.42, -9.42, -9.08, -9.08, -9.08, -9.08, -9.08, -8.82, -8.82, -8.5, -8.22, -8.22, -7.9, -8.19, -7.86, -7.59, -7.3, -6.98, -6.98, -6.35, -6.35, -5.72, -5.72, -5.32, -5.08, -5.08, -5.08, -5.08, -4.66, -4.66, -4.44, -4.0, -4.03, -4.03, -3.6, -3.4, -3.42, -3.45, -2.8, -3.04, -2.82, -2.82, -2.4, -2.2, -2.2, -2.44, -1.76, -1.11, -1.11, -0.59, 0.0, 0.71, 1.26, 1.26, 1.6, 1.79, 0.95, -0.0, -0.0, 0.63, 0.45, 0.0, 0.0, 0.89, -0.0, 0.0, -0.45, -0.0, 1.2, 1.79, 2.17, 2.86, 3.49, 1.54, 0.65, -2.5, -3.82, -3.14, -4.71, -6.32, -5.72, -4.0, -3.07, -2.86, -2.84, -3.45, -3.45, -3.45, -10.41, -10.41, -10.41, -10.41, -10.41, -9.94, -9.94, -9.94, -9.42, -9.42, -9.08, -9.08, -9.08, -9.08, -9.08, -9.08, -9.08, -8.82, -8.82, -8.5, -8.22, -8.22, -7.9, -7.9, -7.59, -7.59, -7.59, -7.59, -6.98, -6.69, -6.35, -6.08, -5.72, -5.72, -5.08, -5.08, -5.34, -5.09, -4.69, -4.44, -4.44, -4.44, -4.24, -4.03, -4.05, -3.4, -3.42, -3.42, -3.45, -2.8, -3.04, -2.82, -2.4, -2.4, -2.2, -2.2, -1.76, -1.76, -1.11, 0.0, 0.0, 0.54, 0.57, 0.8, 0.6, 1.34, 1.26, -0.0, -0.0, -0.0, -0.0, -0.0, -0.0, 0.89, 1.34, 0.0, -0.45, -0.0, 1.2, 1.79, 1.79, 2.4, 3.64, 2.9, 1.23, -1.86, -4.3, -3.45, -2.73, -5.0, -5.72, -5.05, -3.45, -3.14, -3.49, -3.45, -3.45, -3.45, -10.41, -10.41, -10.41, -10.41, -10.41, -9.94, -9.94, -9.94, -9.71, -9.42, -9.08, -9.08, -9.08, -9.08, -9.08, -9.08, -9.08, -9.08, -8.82, -8.5, -8.5, -8.22, -7.9, -7.6, -7.59, -7.59, -7.59, -7.59, -6.97, -6.97, -6.35, -6.35, -6.0, -5.72, -5.72, -5.34, -5.34, -5.09, -5.09, -4.69, -4.69, -4.69, -4.69, -4.03, -4.05, -4.05, -4.08, -3.42, -3.45, -3.45, -3.04, -2.82, -2.84, -2.84, -2.4, -2.2, -1.76, -1.76, -1.27, -0.59, 0.0, 0.0, 0.0, 0.0, 0.6, 0.63, 0.89, -0.0, -0.0, -0.0, -0.0, -0.0, -0.0, -0.0, 0.95, 0.89, 0.0, -0.0, 0.89, 1.34, 1.34, 1.7, 2.84, 2.79, 1.24, -0.45, -3.2, -2.86, -2.23, -3.64, -5.06, -5.05, -3.45, -3.84, -2.84, -2.5, -2.5, -2.5, -10.41, -10.41, -10.41, -10.41, -10.41, -10.23, -9.94, -9.94, -9.94, -9.42, -9.08, -9.08, -9.08, -9.08, -9.08, -9.08, -9.08, -9.08, -8.82, -8.78, -8.78, -8.22, -7.9, -7.6, -7.3, -7.59, -7.27, -6.97, -6.97, -6.97, -6.67, -6.35, -6.35, -5.72, -5.72, -5.72, -5.34, -5.09, -5.09, -5.09, -4.69, -4.69, -4.45, -4.45, -4.05, -4.05, -4.08, -3.84, -3.42, -3.45, -3.22, -3.04, -2.82, -2.84, -2.84, -2.2, -2.22, -1.76, -1.27, -1.13, -0.61, 0.0, 0.0, 0.0, 0.0, 0.0, 0.0, -0.0, -0.0, -0.0, -0.0, -0.0, -0.0, -0.0, 1.26, 0.89, 0.0, 0.0, -0.0, -0.0, 0.89, 1.2, 1.9, 1.88, 0.54, -0.45, -1.58, -1.61, -1.61, -2.73, -5.06, -4.73, -3.45, -2.23, -0.99, -0.6, -0.6, -0.6, -10.41, -10.41, -10.41, -10.41, -10.41, -10.23, -9.86, -9.59, -9.59, -9.37, -9.08, -9.08, -9.08, -9.08, -9.08, -9.08, -9.08, -8.82, -8.78, -8.78, -8.78, -8.78, -8.19, -7.6, -7.3, -6.98, -6.97, -6.97, -6.97, -6.67, -6.35, -6.35, -6.06, -6.06, -5.72, -5.72, -5.72, -5.09, -5.09, -5.09, -5.09, -4.69, -4.45, -4.71, -4.46, -4.05, -4.08, -4.08, -3.42, -3.68, -3.45, -3.04, -2.82, -3.08, -2.84, -2.2, -2.44, -1.76, -1.8, -1.13, -1.16, -0.61, -0.65, 0.0, 0.0, 0.0, 0.0, 0.0, -0.0, -0.0, -0.0, -0.0, -0.0, -0.0, -0.0, 0.0, 0.0, 0.0, -0.63, -0.0, 0.0, 0.0, 0.0, 0.0, 0.59, -0.71, -0.6, -0.0, -0.65, -1.84, -3.72, -4.11, -2.8, -1.2, 1.2, 1.86, 1.86, 1.86, -10.41, -10.41, -10.41, -10.41, -10.41, -10.23, -9.86, -9.86, -9.59, -9.37, -9.37, -9.08, -9.08, -9.08, -9.08, -9.08, -8.82, -8.82, -8.78, -8.78, -8.78, -8.45, -8.19, -7.9, -7.3, -7.3, -6.98, -6.97, -6.97, -6.35, -6.35, -6.35, -6.06, -6.06, -5.72, -5.72, -5.72, -5.09, -5.09, -5.09, -5.09, -4.69, -4.45, -4.71, -4.46, -4.32, -4.08, -4.08, -3.84, -3.42, -3.68, -3.22, -3.04, -2.82, -3.08, -2.84, -2.44, -2.22, -1.8, -1.6, -1.33, -1.16, -0.53, -0.65, -0.54, 0.0, 0.0, -0.6, -0.89, -0.57, -0.71, -0.85, -0.85, -0.6, -0.95, -0.95, -0.89, -0.63, -0.45, -0.0, -0.0, -0.45, -0.95, -0.61, 0.0, 0.0, -1.26, -0.57, -0.0, -1.24, -1.9, -3.07, -2.63, 0.0, 2.68, 3.07, 3.07, 3.07, -10.68, -10.68, -10.41, -10.41, -10.41, -10.23, -9.86, -9.86, -9.86, -9.37, -9.37, -9.37, -9.08, -9.08, -9.08, -9.37, -9.12, -8.78, -8.78, -8.78, -8.78, -8.19, -8.19, -8.19, -7.9, -7.3, -6.98, -6.97, -6.97, -6.35, -6.35, -6.35, -6.06, -5.72, -5.72, -5.72, -5.72, -5.09, -5.09, -5.09, -5.09, -4.45, -4.71, -4.71, -4.46, -4.08, -4.08, -4.08, -3.84, -3.84, -3.42, -3.45, -3.22, -3.04, -2.82, -2.84, -2.84, -2.44, -2.48, -1.8, -1.6, -1.33, -1.16, -0.53, -0.65, -0.54, -0.71, -0.57, -0.95, -1.6, -1.88, -1.24, -1.24, -1.26, -1.2, -1.2, -0.89, -0.89, 0.0, 0.0, -0.0, -0.89, -1.26, -1.33, -0.72, 0.0, -0.66, -1.2, -0.95, -1.34, -1.79, -2.17, -1.58, 0.99, 3.58, 4.87, 4.87, 4.87, -10.68, -10.68, -10.68, -10.41, -10.41, -9.86, -9.86, -9.86, -9.86, -9.66, -9.37, -9.37, -9.37, -9.08, -9.08, -9.37, -9.12, -8.78, -8.78, -8.78, -8.78, -8.19, -8.19, -8.19, -7.86, -7.59, -7.59, -6.97, -6.97, -6.35, -6.35, -6.35, -5.72, -5.72, -5.72, -5.72, -5.45, -5.09, -5.09, -5.09, -5.09, -5.1, -4.71, -4.46, -4.46, -4.08, -4.08, -4.08, -3.84, -3.84, -3.84, -3.45, -3.45, -3.22, -2.82, -2.82, -2.84, -2.44, -2.22, -2.23, -1.8, -1.6, -1.33, -1.16, -1.16, -0.65, -0.54, -0.71, -0.57, -1.34, -1.9, -1.24, -1.26, -1.9, -1.2, -1.2, -0.89, -0.89, 0.0, 0.0, -0.0, -1.34, -1.86, -1.84, -1.52, 0.0, 0.0, 0.0, -0.57, -1.26, -1.58, -1.16, 0.0, 1.16, 3.32, 5.36, 5.36, 5.36, -10.68, -10.68, -10.68, -10.68, -10.04, -9.86, -9.86, -9.86, -9.86, -9.3, -9.3, -9.37, -9.37, -9.37, -9.37, -9.37, -9.12, -8.78, -8.78, -8.78, -8.45, -8.19, -8.19, -8.19, -7.59, -7.59, -7.59, -6.97, -6.97, -6.67, -6.35, -6.35, -5.72, -5.72, -5.72, -5.72, -5.09, -5.09, -5.09, -5.09, -5.09, -4.71, -4.71, -4.46, -4.46, -4.08, -4.08, -4.08, -3.84, -3.84, -3.42, -3.42, -3.45, -3.45, -3.04, -2.82, -3.08, -2.84, -2.44, -2.22, -2.23, -1.8, -1.6, -1.33, -1.16, -1.16, -1.2, -1.2, -1.24, -1.26, -1.79, -1.86, -1.26, -1.26, -1.2, -1.2, -0.89, -0.89, 0.0, 0.0, 0.0, -1.34, -1.86, -1.84, -1.41, 0.0, 0.78, 1.6, 0.74, 0.0, 0.0, 0.0, 0.66, 1.13, 2.5, 4.02, 4.02, 4.02, -10.68, -10.68, -10.68, -10.68, -10.04, -9.86, -9.86, -9.86, -9.86, -9.3, -9.3, -9.37, -9.37, -9.37, -9.37, -9.37, -9.12, -8.78, -8.78, -8.78, -8.45, -8.19, -8.19, -8.19, -7.59, -7.59, -7.59, -6.97, -6.97, -6.67, -6.35, -6.35, -5.72, -5.72, -5.72, -5.72, -5.09, -5.09, -5.09, -5.09, -5.09, -4.71, -4.71, -4.46, -4.46, -4.08, -4.08, -4.08, -3.84, -3.84, -3.42, -3.42, -3.45, -3.45, -3.04, -2.82, -3.08, -2.84, -2.44, -2.22, -2.23, -1.8, -1.6, -1.33, -1.16, -1.16, -1.2, -1.2, -1.24, -1.26, -1.79, -1.86, -1.26, -1.26, -1.2, -1.2, -0.89, -0.89, 0.0, 0.0, 0.0, -1.34, -1.86, -2.15, -1.47, 0.0, 0.79, 2.25, 3.76, 3.85, 3.11, 3.15, 2.26, 2.11, 1.88, 2.6, 2.6, 2.6]}]